Time,TemperatureF,DewpointF,PressureIn,WindDirection,WindDirectionDegrees,WindSpeedMPH,WindSpeedGustMPH,Humidity,HourlyPrecipIn,Conditions,Clouds,dailyrainin,SoftwareType,DateUTC
2013-07-30 00:00:00,65.6,61.3,30.12,NNW,339,0.0,4.0,86,0.00,,---,0.00,VWS V14.01,2013-07-30 04:00:00,
2013-07-30 00:01:00,65.6,61.3,30.12,NNW,347,2.0,3.0,86,0.00,,---,0.00,VWS V14.01,2013-07-30 04:01:00,
2013-07-30 00:03:00,65.6,61.3,30.12,NNW,347,2.0,3.0,86,0.00,,---,0.00,VWS V14.01,2013-07-30 04:03:00,
2013-07-30 00:05:00,65.8,61.5,30.12,NNW,347,0.0,3.0,86,0.00,,---,0.00,VWS V14.01,2013-07-30 04:05:00,
2013-07-30 00:07:00,65.8,61.5,30.12,NNW,343,0.0,3.0,86,0.00,,---,0.00,VWS V14.01,2013-07-30 04:07:00,
2013-07-30 00:09:00,65.8,61.5,30.12,NNW,345,0.0,3.0,86,0.00,,---,0.00,VWS V14.01,2013-07-30 04:09:00,
2013-07-30 00:11:00,65.8,61.5,30.12,NNW,338,0.0,3.0,86,0.00,,---,0.00,VWS V14.01,2013-07-30 04:11:00,
2013-07-30 00:13:00,65.8,61.5,30.12,NNW,338,0.0,3.0,86,0.00,,---,0.00,VWS V14.01,2013-07-30 04:13:00,
2013-07-30 00:15:00,65.8,61.5,30.12,NNW,339,0.0,3.0,86,0.00,,---,0.00,VWS V14.01,2013-07-30 04:15:00,
2013-07-30 00:17:00,65.8,61.5,30.12,NNW,340,2.0,2.0,86,0.00,,---,0.00,VWS V14.01,2013-07-30 04:17:00,
2013-07-30 00:19:00,65.8,61.5,30.12,North,2,0.0,4.0,86,0.00,,---,0.00,VWS V14.01,2013-07-30 04:19:00,
2013-07-30 00:21:00,65.8,61.2,30.12,NNW,342,0.0,4.0,85,0.00,,---,0.00,VWS V14.01,2013-07-30 04:21:00,
2013-07-30 00:23:00,65.8,61.2,30.12,NNW,344,0.0,4.0,85,0.00,,---,0.00,VWS V14.01,2013-07-30 04:23:00,
2013-07-30 00:25:00,65.8,61.2,30.12,NNW,327,5.0,5.0,85,0.00,,---,0.00,VWS V14.01,2013-07-30 04:25:00,
2013-07-30 00:27:00,65.6,61.0,30.12,NNW,339,3.0,5.0,85,0.00,,---,0.00,VWS V14.01,2013-07-30 04:27:00,
2013-07-30 00:29:00,65.8,61.2,30.12,North,7,4.0,5.0,85,0.00,,---,0.00,VWS V14.01,2013-07-30 04:29:00,
2013-07-30 00:30:00,65.8,61.2,30.12,North,359,4.0,5.0,85,0.00,,---,0.00,VWS V14.01,2013-07-30 04:30:00,
2013-07-30 00:32:00,65.6,61.0,30.12,North,1,3.0,4.0,85,0.00,,---,0.00,VWS V14.01,2013-07-30 04:32:00,
2013-07-30 00:34:00,65.6,61.0,30.12,North,349,1.0,4.0,85,0.00,,---,0.00,VWS V14.01,2013-07-30 04:34:00,
2013-07-30 00:35:00,65.6,60.6,30.12,North,4,0.0,4.0,84,0.00,,---,0.00,VWS V14.01,2013-07-30 04:35:00,
2013-07-30 00:38:00,65.6,61.0,30.12,North,349,0.0,4.0,85,0.00,,---,0.00,VWS V14.01,2013-07-30 04:38:00,
2013-07-30 00:40:00,65.6,61.0,30.12,NW,325,0.0,4.0,85,0.00,,---,0.00,VWS V14.01,2013-07-30 04:40:00,
2013-07-30 00:42:00,65.6,61.0,30.12,NW,323,0.0,4.0,85,0.00,,---,0.00,VWS V14.01,2013-07-30 04:42:00,
2013-07-30 00:44:00,65.5,60.9,30.12,NW,323,0.0,4.0,85,0.00,,---,0.00,VWS V14.01,2013-07-30 04:44:00,
2013-07-30 00:45:00,65.5,60.9,30.12,NW,323,0.0,4.0,85,0.00,,---,0.00,VWS V14.01,2013-07-30 04:45:00,
2013-07-30 00:46:00,65.5,61.2,30.12,NW,323,0.0,0.0,86,0.00,,---,0.00,VWS V14.01,2013-07-30 04:46:00,
2013-07-30 00:48:00,65.3,61.0,30.12,NW,323,0.0,0.0,86,0.00,,---,0.00,VWS V14.01,2013-07-30 04:48:00,
2013-07-30 00:50:00,65.3,61.0,30.12,NW,323,1.0,2.0,86,0.00,,---,0.00,VWS V14.01,2013-07-30 04:50:00,
2013-07-30 00:52:00,65.2,60.9,30.12,NW,323,0.0,2.0,86,0.00,,---,0.00,VWS V14.01,2013-07-30 04:52:00,
2013-07-30 00:54:00,65.2,60.9,30.12,NW,323,0.0,2.0,86,0.00,,---,0.00,VWS V14.01,2013-07-30 04:54:00,
2013-07-30 00:56:00,65.2,60.6,30.12,NW,323,0.0,2.0,85,0.00,,---,0.00,VWS V14.01,2013-07-30 04:56:00,
2013-07-30 00:58:00,65.0,60.4,30.12,NW,323,0.0,2.0,85,0.00,,---,0.00,VWS V14.01,2013-07-30 04:58:00,
2013-07-30 01:00:00,65.0,60.4,30.12,NW,323,0.0,2.0,85,0.00,,---,0.00,VWS V14.01,2013-07-30 05:00:00,
2013-07-30 01:02:00,65.0,60.4,30.12,NW,323,0.0,0.0,85,0.00,,---,0.00,VWS V14.01,2013-07-30 05:02:00,
2013-07-30 01:04:00,65.0,60.0,30.12,NW,323,0.0,0.0,84,0.00,,---,0.00,VWS V14.01,2013-07-30 05:04:00,
2013-07-30 01:06:00,64.8,59.9,30.12,NW,324,0.0,3.0,84,0.00,,---,0.00,VWS V14.01,2013-07-30 05:06:00,
2013-07-30 01:08:00,64.8,59.9,30.12,NW,324,0.0,3.0,84,0.00,,---,0.00,VWS V14.01,2013-07-30 05:08:00,
2013-07-30 01:10:00,64.8,59.9,30.12,NW,324,0.0,3.0,84,0.00,,---,0.00,VWS V14.01,2013-07-30 05:10:00,
2013-07-30 01:12:00,64.8,59.5,30.12,NW,326,0.0,3.0,83,0.00,,---,0.00,VWS V14.01,2013-07-30 05:12:00,
2013-07-30 01:14:00,64.8,59.5,30.12,NNW,338,0.0,3.0,83,0.00,,---,0.00,VWS V14.01,2013-07-30 05:14:00,
2013-07-30 01:15:00,64.8,59.5,30.12,NNW,338,2.0,3.0,83,0.00,,---,0.00,VWS V14.01,2013-07-30 05:15:00,
2013-07-30 01:16:00,64.8,59.5,30.12,NNW,338,0.0,2.0,83,0.00,,---,0.00,VWS V14.01,2013-07-30 05:16:00,
2013-07-30 01:18:00,64.8,59.2,30.12,NNW,338,0.0,2.0,82,0.00,,---,0.00,VWS V14.01,2013-07-30 05:18:00,
2013-07-30 01:20:00,64.8,59.2,30.12,NNW,338,0.0,2.0,82,0.00,,---,0.00,VWS V14.01,2013-07-30 05:20:00,
2013-07-30 01:22:00,64.8,59.2,30.12,NNW,340,2.0,3.0,82,0.00,,---,0.00,VWS V14.01,2013-07-30 05:22:00,
2013-07-30 01:24:00,64.8,59.5,30.12,NNW,340,0.0,3.0,83,0.00,,---,0.00,VWS V14.01,2013-07-30 05:24:00,
2013-07-30 01:26:00,64.8,59.5,30.12,NNW,340,0.0,3.0,83,0.00,,---,0.00,VWS V14.01,2013-07-30 05:26:00,
2013-07-30 01:28:00,64.8,59.5,30.12,NNW,340,0.0,3.0,83,0.00,,---,0.00,VWS V14.01,2013-07-30 05:28:00,
2013-07-30 01:30:00,64.8,59.5,30.12,NNW,340,0.0,3.0,83,0.00,,---,0.00,VWS V14.01,2013-07-30 05:30:00,
2013-07-30 01:32:00,64.8,59.9,30.12,NNW,340,0.0,1.0,84,0.00,,---,0.00,VWS V14.01,2013-07-30 05:32:00,
2013-07-30 01:34:00,64.8,59.9,30.12,NNW,340,0.0,1.0,84,0.00,,---,0.00,VWS V14.01,2013-07-30 05:34:00,
2013-07-30 01:36:00,64.8,59.9,30.12,NNW,340,0.0,1.0,84,0.00,,---,0.00,VWS V14.01,2013-07-30 05:36:00,
2013-07-30 01:38:00,64.8,59.9,30.12,NNW,340,0.0,1.0,84,0.00,,---,0.00,VWS V14.01,2013-07-30 05:38:00,
2013-07-30 01:40:00,64.8,59.9,30.12,NNW,340,0.0,1.0,84,0.00,,---,0.00,VWS V14.01,2013-07-30 05:40:00,
2013-07-30 01:42:00,64.7,59.8,30.12,NNW,340,0.0,1.0,84,0.00,,---,0.00,VWS V14.01,2013-07-30 05:42:00,
2013-07-30 01:44:00,64.7,60.1,30.11,NNW,340,0.0,1.0,85,0.00,,---,0.00,VWS V14.01,2013-07-30 05:44:00,
2013-07-30 01:45:00,64.7,60.1,30.11,NNW,340,0.0,1.0,85,0.00,,---,0.00,VWS V14.01,2013-07-30 05:45:00,
2013-07-30 01:46:00,64.7,60.1,30.11,NNW,340,0.0,1.0,85,0.00,,---,0.00,VWS V14.01,2013-07-30 05:46:00,
2013-07-30 01:48:00,64.5,59.9,30.11,NNW,340,0.0,1.0,85,0.00,,---,0.00,VWS V14.01,2013-07-30 05:48:00,
2013-07-30 01:50:00,64.5,59.6,30.11,NNW,347,2.0,3.0,84,0.00,,---,0.00,VWS V14.01,2013-07-30 05:50:00,
2013-07-30 01:52:00,64.5,59.6,30.11,NNW,347,1.0,3.0,84,0.00,,---,0.00,VWS V14.01,2013-07-30 05:52:00,
2013-07-30 01:54:00,64.5,59.6,30.11,NNW,347,0.0,3.0,84,0.00,,---,0.00,VWS V14.01,2013-07-30 05:54:00,
2013-07-30 01:56:00,64.3,59.4,30.11,NNW,347,0.0,3.0,84,0.00,,---,0.00,VWS V14.01,2013-07-30 05:56:00,
2013-07-30 01:58:00,64.3,59.7,30.11,NNW,347,0.0,3.0,85,0.00,,---,0.00,VWS V14.01,2013-07-30 05:58:00,
2013-07-30 02:00:00,64.3,59.7,30.11,NNW,347,0.0,3.0,85,0.00,,---,0.00,VWS V14.01,2013-07-30 06:00:00,
2013-07-30 02:02:00,64.2,59.6,30.11,NNW,347,0.0,0.0,85,0.00,,---,0.00,VWS V14.01,2013-07-30 06:02:00,
2013-07-30 02:04:00,64.2,59.6,30.11,NNW,347,0.0,0.0,85,0.00,,---,0.00,VWS V14.01,2013-07-30 06:04:00,
2013-07-30 02:06:00,64.2,59.6,30.11,NNW,347,0.0,0.0,85,0.00,,---,0.00,VWS V14.01,2013-07-30 06:06:00,
2013-07-30 02:08:00,64.2,59.6,30.11,NNW,347,0.0,0.0,85,0.00,,---,0.00,VWS V14.01,2013-07-30 06:08:00,
2013-07-30 02:10:00,64.2,59.6,30.11,NNW,347,0.0,0.0,85,0.00,,---,0.00,VWS V14.01,2013-07-30 06:10:00,
2013-07-30 02:12:00,64.0,59.4,30.11,NNW,347,0.0,0.0,85,0.00,,---,0.00,VWS V14.01,2013-07-30 06:12:00,
2013-07-30 02:14:00,64.0,59.4,30.12,NNW,347,0.0,0.0,85,0.00,,---,0.00,VWS V14.01,2013-07-30 06:14:00,
2013-07-30 02:15:00,64.0,59.4,30.12,NNW,347,0.0,0.0,85,0.00,,---,0.00,VWS V14.01,2013-07-30 06:15:00,
2013-07-30 02:16:00,63.9,59.3,30.12,NNW,347,0.0,0.0,85,0.00,,---,0.00,VWS V14.01,2013-07-30 06:16:00,
2013-07-30 02:18:00,63.9,59.6,30.12,NNW,347,0.0,0.0,86,0.00,,---,0.00,VWS V14.01,2013-07-30 06:18:00,
2013-07-30 02:20:00,63.9,59.6,30.12,NNW,347,0.0,0.0,86,0.00,,---,0.00,VWS V14.01,2013-07-30 06:20:00,
2013-07-30 02:22:00,63.9,59.6,30.12,NNW,347,0.0,0.0,86,0.00,,---,0.00,VWS V14.01,2013-07-30 06:22:00,
2013-07-30 02:24:00,63.7,59.4,30.12,NNW,347,0.0,0.0,86,0.00,,---,0.00,VWS V14.01,2013-07-30 06:24:00,
2013-07-30 02:26:00,63.7,59.4,30.12,NNW,347,0.0,0.0,86,0.00,,---,0.00,VWS V14.01,2013-07-30 06:26:00,
2013-07-30 02:28:00,63.7,59.8,30.12,NNW,347,0.0,0.0,87,0.00,,---,0.00,VWS V14.01,2013-07-30 06:28:00,
2013-07-30 02:30:00,63.5,59.6,30.12,NNW,347,0.0,0.0,87,0.00,,---,0.00,VWS V14.01,2013-07-30 06:30:00,
2013-07-30 02:32:00,63.4,59.8,30.12,NNW,347,0.0,0.0,88,0.00,,---,0.00,VWS V14.01,2013-07-30 06:32:00,
2013-07-30 02:34:00,63.4,59.8,30.12,NNW,347,0.0,0.0,88,0.00,,---,0.00,VWS V14.01,2013-07-30 06:34:00,
2013-07-30 02:36:00,63.2,59.9,30.12,NNW,347,0.0,0.0,89,0.00,,---,0.00,VWS V14.01,2013-07-30 06:36:00,
2013-07-30 02:38:00,63.2,59.9,30.12,NNW,347,0.0,0.0,89,0.00,,---,0.00,VWS V14.01,2013-07-30 06:38:00,
2013-07-30 02:40:00,63.1,59.5,30.12,NNW,347,0.0,0.0,88,0.00,,---,0.00,VWS V14.01,2013-07-30 06:40:00,
2013-07-30 02:42:00,63.1,59.8,30.12,NNW,347,0.0,0.0,89,0.00,,---,0.00,VWS V14.01,2013-07-30 06:42:00,
2013-07-30 02:44:00,63.1,59.8,30.12,NNW,347,0.0,0.0,89,0.00,,---,0.00,VWS V14.01,2013-07-30 06:44:00,
2013-07-30 02:45:00,63.1,59.8,30.12,NNW,347,0.0,0.0,89,0.00,,---,0.00,VWS V14.01,2013-07-30 06:45:00,
2013-07-30 02:47:00,62.9,59.6,30.12,NNW,347,0.0,0.0,89,0.00,,---,0.00,VWS V14.01,2013-07-30 06:47:00,
2013-07-30 02:49:00,62.9,59.6,30.12,NNW,347,0.0,0.0,89,0.00,,---,0.00,VWS V14.01,2013-07-30 06:49:00,
2013-07-30 02:51:00,62.9,59.6,30.12,NNW,347,0.0,0.0,89,0.00,,---,0.00,VWS V14.01,2013-07-30 06:51:00,
2013-07-30 02:53:00,62.9,59.6,30.12,NNW,347,0.0,0.0,89,0.00,,---,0.00,VWS V14.01,2013-07-30 06:53:00,
2013-07-30 02:55:00,62.7,59.7,30.12,NNW,347,0.0,0.0,90,0.00,,---,0.00,VWS V14.01,2013-07-30 06:55:00,
2013-07-30 02:57:00,62.7,59.7,30.12,NNW,347,0.0,0.0,90,0.00,,---,0.00,VWS V14.01,2013-07-30 06:57:00,
2013-07-30 02:59:00,62.7,59.7,30.12,NNW,347,0.0,0.0,90,0.00,,---,0.00,VWS V14.01,2013-07-30 06:59:00,
2013-07-30 03:00:00,62.7,59.7,30.12,NNW,347,0.0,0.0,90,0.00,,---,0.00,VWS V14.01,2013-07-30 07:00:00,
2013-07-30 03:01:00,62.6,59.6,30.12,NNW,347,0.0,0.0,90,0.00,,---,0.00,VWS V14.01,2013-07-30 07:01:00,
2013-07-30 03:03:00,62.6,59.6,30.12,NNW,347,0.0,0.0,90,0.00,,---,0.00,VWS V14.01,2013-07-30 07:03:00,
2013-07-30 03:05:00,62.6,59.6,30.12,NNW,347,0.0,0.0,90,0.00,,---,0.00,VWS V14.01,2013-07-30 07:05:00,
2013-07-30 03:07:00,62.6,59.9,30.12,NNW,347,0.0,0.0,91,0.00,,---,0.00,VWS V14.01,2013-07-30 07:07:00,
2013-07-30 03:09:00,62.4,59.7,30.12,NNW,347,0.0,0.0,91,0.00,,---,0.00,VWS V14.01,2013-07-30 07:09:00,
2013-07-30 03:11:00,62.4,59.7,30.12,NNW,347,0.0,0.0,91,0.00,,---,0.00,VWS V14.01,2013-07-30 07:11:00,
2013-07-30 03:13:00,62.3,60.0,30.12,NNW,347,0.0,0.0,92,0.00,,---,0.00,VWS V14.01,2013-07-30 07:13:00,
2013-07-30 03:15:00,62.3,60.0,30.12,NNW,347,0.0,0.0,92,0.00,,---,0.00,VWS V14.01,2013-07-30 07:15:00,
2013-07-30 03:17:00,62.1,59.8,30.12,NNW,347,0.0,0.0,92,0.00,,---,0.00,VWS V14.01,2013-07-30 07:17:00,
2013-07-30 03:19:00,62.1,59.8,30.12,NNW,347,0.0,0.0,92,0.00,,---,0.00,VWS V14.01,2013-07-30 07:19:00,
2013-07-30 03:21:00,62.0,59.7,30.12,NNW,347,0.0,0.0,92,0.00,,---,0.00,VWS V14.01,2013-07-30 07:21:00,
2013-07-30 03:23:00,62.0,59.7,30.12,NNW,347,0.0,0.0,92,0.00,,---,0.00,VWS V14.01,2013-07-30 07:23:00,
2013-07-30 03:25:00,61.8,59.8,30.12,NNW,347,0.0,0.0,93,0.00,,---,0.00,VWS V14.01,2013-07-30 07:25:00,
2013-07-30 03:27:00,61.8,59.8,30.12,NNW,347,0.0,0.0,93,0.00,,---,0.00,VWS V14.01,2013-07-30 07:27:00,
2013-07-30 03:29:00,61.6,59.6,30.12,NNW,347,0.0,0.0,93,0.00,,---,0.00,VWS V14.01,2013-07-30 07:29:00,
2013-07-30 03:30:00,61.6,59.6,30.12,NNW,347,0.0,0.0,93,0.00,,---,0.00,VWS V14.01,2013-07-30 07:30:00,
2013-07-30 03:31:00,61.5,59.8,30.12,NNW,347,0.0,0.0,94,0.00,,---,0.00,VWS V14.01,2013-07-30 07:31:00,
2013-07-30 03:33:00,61.3,59.6,30.12,NNW,347,0.0,0.0,94,0.00,,---,0.00,VWS V14.01,2013-07-30 07:33:00,
2013-07-30 03:35:00,61.3,59.6,30.12,NNW,347,0.0,0.0,94,0.00,,---,0.00,VWS V14.01,2013-07-30 07:35:00,
2013-07-30 03:37:00,61.2,59.5,30.12,NNW,347,0.0,0.0,94,0.00,,---,0.00,VWS V14.01,2013-07-30 07:37:00,
2013-07-30 03:39:00,61.2,59.8,30.12,NNW,347,0.0,0.0,95,0.00,,---,0.00,VWS V14.01,2013-07-30 07:39:00,
2013-07-30 03:41:00,61.2,59.8,30.12,NNW,347,0.0,0.0,95,0.00,,---,0.00,VWS V14.01,2013-07-30 07:41:00,
2013-07-30 03:43:00,61.0,59.6,30.12,NNW,347,0.0,0.0,95,0.00,,---,0.00,VWS V14.01,2013-07-30 07:43:00,
2013-07-30 03:45:00,61.0,59.6,30.12,NNW,347,0.0,0.0,95,0.00,,---,0.00,VWS V14.01,2013-07-30 07:45:00,
2013-07-30 03:47:00,61.0,59.6,30.12,NNW,347,0.0,0.0,95,0.00,,---,0.00,VWS V14.01,2013-07-30 07:47:00,
2013-07-30 03:49:00,60.9,59.5,30.12,NNW,347,0.0,0.0,95,0.00,,---,0.00,VWS V14.01,2013-07-30 07:49:00,
2013-07-30 03:51:00,60.9,59.8,30.12,NNW,347,0.0,0.0,96,0.00,,---,0.00,VWS V14.01,2013-07-30 07:51:00,
2013-07-30 03:53:00,60.7,59.6,30.12,NNW,347,0.0,0.0,96,0.00,,---,0.00,VWS V14.01,2013-07-30 07:53:00,
2013-07-30 03:55:00,60.7,59.6,30.12,NNW,347,0.0,0.0,96,0.00,,---,0.00,VWS V14.01,2013-07-30 07:55:00,
2013-07-30 03:57:00,60.7,59.6,30.12,NNW,347,0.0,0.0,96,0.00,,---,0.00,VWS V14.01,2013-07-30 07:57:00,
2013-07-30 03:59:00,60.7,59.6,30.12,NNW,347,0.0,0.0,96,0.00,,---,0.00,VWS V14.01,2013-07-30 07:59:00,
2013-07-30 04:00:00,60.7,59.6,30.12,NNW,347,0.0,0.0,96,0.00,,---,0.00,VWS V14.01,2013-07-30 08:00:00,
2013-07-30 04:01:00,60.7,59.6,30.12,NNW,347,0.0,0.0,96,0.00,,---,0.00,VWS V14.01,2013-07-30 08:01:00,
2013-07-30 04:03:00,60.7,59.6,30.12,NNW,347,0.0,0.0,96,0.00,,---,0.00,VWS V14.01,2013-07-30 08:03:00,
2013-07-30 04:05:00,60.7,59.6,30.12,NNW,347,0.0,0.0,96,0.00,,---,0.00,VWS V14.01,2013-07-30 08:05:00,
2013-07-30 04:07:00,60.5,59.4,30.12,NNW,347,0.0,0.0,96,0.00,,---,0.00,VWS V14.01,2013-07-30 08:07:00,
2013-07-30 04:09:00,60.5,59.4,30.12,NNW,347,0.0,0.0,96,0.00,,---,0.00,VWS V14.01,2013-07-30 08:09:00,
2013-07-30 04:11:00,60.5,59.4,30.12,NNW,347,0.0,0.0,96,0.00,,---,0.00,VWS V14.01,2013-07-30 08:11:00,
2013-07-30 04:13:00,60.5,59.4,30.12,NNW,347,0.0,0.0,96,0.00,,---,0.00,VWS V14.01,2013-07-30 08:13:00,
2013-07-30 04:15:00,60.5,59.7,30.12,NNW,347,0.0,0.0,97,0.00,,---,0.00,VWS V14.01,2013-07-30 08:15:00,
2013-07-30 04:18:00,60.5,59.7,30.12,NNW,347,0.0,0.0,97,0.00,,---,0.00,VWS V14.01,2013-07-30 08:18:00,
2013-07-30 04:19:00,60.5,59.7,30.12,NNW,347,0.0,0.0,97,0.00,,---,0.00,VWS V14.01,2013-07-30 08:19:00,
2013-07-30 04:21:00,60.4,59.5,30.12,NNW,347,0.0,0.0,97,0.00,,---,0.00,VWS V14.01,2013-07-30 08:21:00,
2013-07-30 04:23:00,60.4,59.5,30.12,NNW,347,0.0,0.0,97,0.00,,---,0.00,VWS V14.01,2013-07-30 08:23:00,
2013-07-30 04:25:00,60.4,59.5,30.12,NNW,347,0.0,0.0,97,0.00,,---,0.00,VWS V14.01,2013-07-30 08:25:00,
2013-07-30 04:28:00,60.4,59.5,30.12,NNW,347,0.0,0.0,97,0.00,,---,0.00,VWS V14.01,2013-07-30 08:28:00,
2013-07-30 04:30:00,60.4,59.5,30.12,NNW,347,0.0,0.0,97,0.00,,---,0.00,VWS V14.01,2013-07-30 08:30:00,
2013-07-30 04:32:00,60.4,59.5,30.12,NNW,347,0.0,0.0,97,0.00,,---,0.00,VWS V14.01,2013-07-30 08:32:00,
2013-07-30 04:34:00,60.2,59.3,30.12,NNW,347,0.0,0.0,97,0.00,,---,0.00,VWS V14.01,2013-07-30 08:34:00,
2013-07-30 04:36:00,60.2,59.3,30.12,NNW,347,0.0,0.0,97,0.00,,---,0.00,VWS V14.01,2013-07-30 08:36:00,
2013-07-30 04:38:00,60.2,59.3,30.12,NNW,347,0.0,0.0,97,0.00,,---,0.00,VWS V14.01,2013-07-30 08:38:00,
2013-07-30 04:40:00,60.2,59.3,30.12,NNW,347,0.0,0.0,97,0.00,,---,0.00,VWS V14.01,2013-07-30 08:40:00,
2013-07-30 04:42:00,60.2,59.3,30.12,NNW,347,0.0,0.0,97,0.00,,---,0.00,VWS V14.01,2013-07-30 08:42:00,
2013-07-30 04:44:00,60.2,59.3,30.12,NNW,347,0.0,0.0,97,0.00,,---,0.00,VWS V14.01,2013-07-30 08:44:00,
2013-07-30 04:45:00,60.2,59.3,30.12,NNW,347,0.0,0.0,97,0.00,,---,0.00,VWS V14.01,2013-07-30 08:45:00,
2013-07-30 04:46:00,60.1,59.2,30.12,NNW,347,0.0,0.0,97,0.00,,---,0.00,VWS V14.01,2013-07-30 08:46:00,
2013-07-30 04:48:00,60.1,59.2,30.12,NNW,347,0.0,0.0,97,0.00,,---,0.00,VWS V14.01,2013-07-30 08:48:00,
2013-07-30 04:50:00,60.1,59.5,30.12,NNW,347,0.0,0.0,98,0.00,,---,0.00,VWS V14.01,2013-07-30 08:50:00,
2013-07-30 04:52:00,60.1,59.5,30.12,NNW,347,0.0,0.0,98,0.00,,---,0.00,VWS V14.01,2013-07-30 08:52:00,
2013-07-30 04:54:00,60.1,59.5,30.12,NNW,347,0.0,0.0,98,0.00,,---,0.00,VWS V14.01,2013-07-30 08:54:00,
2013-07-30 04:56:00,60.1,59.5,30.12,NNW,347,0.0,0.0,98,0.00,,---,0.00,VWS V14.01,2013-07-30 08:56:00,
2013-07-30 04:58:00,60.1,59.5,30.12,NNW,347,0.0,0.0,98,0.00,,---,0.00,VWS V14.01,2013-07-30 08:58:00,
2013-07-30 05:00:00,60.1,59.5,30.13,NNW,347,0.0,0.0,98,0.00,,---,0.00,VWS V14.01,2013-07-30 09:00:00,
2013-07-30 05:02:00,60.1,59.5,30.13,NNW,347,0.0,0.0,98,0.00,,---,0.00,VWS V14.01,2013-07-30 09:02:00,
2013-07-30 05:04:00,60.1,59.5,30.13,NNW,347,0.0,0.0,98,0.00,,---,0.00,VWS V14.01,2013-07-30 09:04:00,
2013-07-30 05:06:00,60.1,59.5,30.13,NNW,347,0.0,0.0,98,0.00,,---,0.00,VWS V14.01,2013-07-30 09:06:00,
2013-07-30 05:08:00,60.1,59.5,30.13,NNW,347,0.0,0.0,98,0.00,,---,0.00,VWS V14.01,2013-07-30 09:08:00,
2013-07-30 05:10:00,60.1,59.5,30.13,NNW,347,0.0,0.0,98,0.00,,---,0.00,VWS V14.01,2013-07-30 09:10:00,
2013-07-30 05:12:00,60.1,59.5,30.13,NNW,347,0.0,0.0,98,0.00,,---,0.00,VWS V14.01,2013-07-30 09:12:00,
2013-07-30 05:14:00,60.1,59.5,30.14,NNW,347,0.0,0.0,98,0.00,,---,0.00,VWS V14.01,2013-07-30 09:14:00,
2013-07-30 05:15:00,60.1,59.5,30.14,NNW,347,0.0,0.0,98,0.00,,---,0.00,VWS V14.01,2013-07-30 09:15:00,
2013-07-30 05:16:00,60.1,59.5,30.14,NNW,347,0.0,0.0,98,0.00,,---,0.00,VWS V14.01,2013-07-30 09:16:00,
2013-07-30 05:18:00,60.1,59.5,30.14,NNW,347,0.0,0.0,98,0.00,,---,0.00,VWS V14.01,2013-07-30 09:18:00,
2013-07-30 05:20:00,60.1,59.5,30.14,NNW,347,0.0,0.0,98,0.00,,---,0.00,VWS V14.01,2013-07-30 09:20:00,
2013-07-30 05:22:00,60.1,59.2,30.14,NNW,347,0.0,0.0,97,0.00,,---,0.00,VWS V14.01,2013-07-30 09:22:00,
2013-07-30 05:24:00,60.1,59.2,30.14,NNW,347,0.0,0.0,97,0.00,,---,0.00,VWS V14.01,2013-07-30 09:24:00,
2013-07-30 05:26:00,60.1,59.2,30.14,NNW,347,0.0,0.0,97,0.00,,---,0.00,VWS V14.01,2013-07-30 09:26:00,
2013-07-30 05:28:00,60.1,59.2,30.14,NNW,347,0.0,1.0,97,0.00,,---,0.00,VWS V14.01,2013-07-30 09:28:00,
2013-07-30 05:30:00,60.1,59.2,30.14,NNW,347,0.0,1.0,97,0.00,,---,0.00,VWS V14.01,2013-07-30 09:30:00,
2013-07-30 05:32:00,60.1,59.2,30.14,NNW,347,1.0,1.0,97,0.00,,---,0.00,VWS V14.01,2013-07-30 09:32:00,
2013-07-30 05:34:00,60.1,59.2,30.14,NNW,347,0.0,1.0,97,0.00,,---,0.00,VWS V14.01,2013-07-30 09:34:00,
2013-07-30 05:36:00,60.1,59.2,30.14,NNW,347,0.0,1.0,97,0.00,,---,0.00,VWS V14.01,2013-07-30 09:36:00,
2013-07-30 05:38:00,60.1,59.2,30.14,NNW,347,0.0,1.0,97,0.00,,---,0.00,VWS V14.01,2013-07-30 09:38:00,
2013-07-30 05:40:00,60.1,59.2,30.14,NNW,347,0.0,1.0,97,0.00,,---,0.00,VWS V14.01,2013-07-30 09:40:00,
2013-07-30 05:42:00,60.1,59.2,30.14,NNW,347,0.0,2.0,97,0.00,,---,0.00,VWS V14.01,2013-07-30 09:42:00,
2013-07-30 05:44:00,59.9,59.0,30.14,NNW,347,0.0,2.0,97,0.00,,---,0.00,VWS V14.01,2013-07-30 09:44:00,
2013-07-30 05:45:00,59.9,59.0,30.14,NNW,347,0.0,2.0,97,0.00,,---,0.00,VWS V14.01,2013-07-30 09:45:00,
2013-07-30 05:46:00,59.9,58.8,30.14,NNW,347,0.0,1.0,96,0.00,,---,0.00,VWS V14.01,2013-07-30 09:46:00,
2013-07-30 05:48:00,59.9,58.8,30.14,NNW,347,0.0,1.0,96,0.00,,---,0.00,VWS V14.01,2013-07-30 09:48:00,
2013-07-30 05:50:00,59.9,58.8,30.14,NNW,347,0.0,1.0,96,0.00,,---,0.00,VWS V14.01,2013-07-30 09:50:00,
2013-07-30 05:53:00,59.9,58.8,30.14,NNW,347,0.0,3.0,96,0.00,,---,0.00,VWS V14.01,2013-07-30 09:53:00,
2013-07-30 05:55:00,59.9,58.8,30.14,NNW,347,0.0,3.0,96,0.00,,---,0.00,VWS V14.01,2013-07-30 09:55:00,
2013-07-30 05:57:00,59.9,58.8,30.14,NNW,347,0.0,3.0,96,0.00,,---,0.00,VWS V14.01,2013-07-30 09:57:00,
2013-07-30 05:59:00,59.9,58.8,30.14,NNW,347,0.0,3.0,96,0.00,,---,0.00,VWS V14.01,2013-07-30 09:59:00,
2013-07-30 06:00:00,59.9,58.8,30.15,NNW,347,0.0,3.0,96,0.00,,---,0.00,VWS V14.01,2013-07-30 10:00:00,
2013-07-30 06:01:00,59.9,58.8,30.15,NNW,347,0.0,0.0,96,0.00,,---,0.00,VWS V14.01,2013-07-30 10:01:00,
2013-07-30 06:03:00,59.8,58.7,30.15,NNW,347,0.0,0.0,96,0.00,,---,0.00,VWS V14.01,2013-07-30 10:03:00,
2013-07-30 06:05:00,59.8,58.7,30.15,NNW,347,0.0,0.0,96,0.00,,---,0.00,VWS V14.01,2013-07-30 10:05:00,
2013-07-30 06:07:00,59.8,58.7,30.15,NNW,347,0.0,1.0,96,0.00,,---,0.00,VWS V14.01,2013-07-30 10:07:00,
2013-07-30 06:09:00,59.9,58.8,30.15,NNW,347,0.0,1.0,96,0.00,,---,0.00,VWS V14.01,2013-07-30 10:09:00,
2013-07-30 06:11:00,59.9,58.8,30.15,NNW,347,0.0,1.0,96,0.00,,---,0.00,VWS V14.01,2013-07-30 10:11:00,
2013-07-30 06:13:00,60.1,58.7,30.15,NNW,347,0.0,1.0,95,0.00,,---,0.00,VWS V14.01,2013-07-30 10:13:00,
2013-07-30 06:15:00,60.1,58.7,30.16,NNW,347,0.0,1.0,95,0.00,,---,0.00,VWS V14.01,2013-07-30 10:15:00,
2013-07-30 06:17:00,60.1,58.7,30.16,NNW,347,0.0,0.0,95,0.00,,---,0.00,VWS V14.01,2013-07-30 10:17:00,
2013-07-30 06:19:00,60.2,58.8,30.16,NNW,347,0.0,0.0,95,0.00,,---,0.00,VWS V14.01,2013-07-30 10:19:00,
2013-07-30 06:21:00,60.2,58.8,30.16,NNW,347,2.0,2.0,95,0.00,,---,0.00,VWS V14.01,2013-07-30 10:21:00,
2013-07-30 06:23:00,60.4,59.0,30.16,NNW,347,0.0,3.0,95,0.00,,---,0.00,VWS V14.01,2013-07-30 10:23:00,
2013-07-30 06:25:00,60.4,58.7,30.16,NNW,347,0.0,3.0,94,0.00,,---,0.00,VWS V14.01,2013-07-30 10:25:00,
2013-07-30 06:27:00,60.4,58.7,30.16,NNW,347,0.0,3.0,94,0.00,,---,0.00,VWS V14.01,2013-07-30 10:27:00,
2013-07-30 06:29:00,60.4,58.7,30.16,NNW,347,0.0,3.0,94,0.00,,---,0.00,VWS V14.01,2013-07-30 10:29:00,
2013-07-30 06:30:00,60.4,58.7,30.16,NNW,347,0.0,3.0,94,0.00,,---,0.00,VWS V14.01,2013-07-30 10:30:00,
2013-07-30 06:31:00,60.5,58.8,30.16,NNW,347,0.0,2.0,94,0.00,,---,0.00,VWS V14.01,2013-07-30 10:31:00,
2013-07-30 06:33:00,60.5,58.8,30.16,NNW,347,0.0,4.0,94,0.00,,---,0.00,VWS V14.01,2013-07-30 10:33:00,
2013-07-30 06:35:00,60.5,58.8,30.16,NNW,347,1.0,4.0,94,0.00,,---,0.00,VWS V14.01,2013-07-30 10:35:00,
2013-07-30 06:37:00,60.5,58.8,30.16,NNW,347,0.0,4.0,94,0.00,,---,0.00,VWS V14.01,2013-07-30 10:37:00,
2013-07-30 06:39:00,60.5,58.8,30.16,NNW,347,0.0,4.0,94,0.00,,---,0.00,VWS V14.01,2013-07-30 10:39:00,
2013-07-30 06:41:00,60.5,58.8,30.16,NNW,347,0.0,4.0,94,0.00,,---,0.00,VWS V14.01,2013-07-30 10:41:00,
2013-07-30 06:43:00,60.5,58.8,30.16,NNW,347,0.0,4.0,94,0.00,,---,0.00,VWS V14.01,2013-07-30 10:43:00,
2013-07-30 06:45:00,60.5,58.8,30.16,NNW,347,0.0,4.0,94,0.00,,---,0.00,VWS V14.01,2013-07-30 10:45:00,
2013-07-30 06:47:00,60.5,58.8,30.16,NNW,347,0.0,0.0,94,0.00,,---,0.00,VWS V14.01,2013-07-30 10:47:00,
2013-07-30 06:49:00,60.7,59.0,30.16,NNW,347,0.0,2.0,94,0.00,,---,0.00,VWS V14.01,2013-07-30 10:49:00,
2013-07-30 06:51:00,60.7,59.0,30.16,NNW,347,2.0,2.0,94,0.00,,---,0.00,VWS V14.01,2013-07-30 10:51:00,
2013-07-30 06:53:00,60.7,59.0,30.16,NNW,338,0.0,4.0,94,0.00,,---,0.00,VWS V14.01,2013-07-30 10:53:00,
2013-07-30 06:55:00,60.9,59.2,30.16,NNW,333,0.0,4.0,94,0.00,,---,0.00,VWS V14.01,2013-07-30 10:55:00,
2013-07-30 06:57:00,60.9,59.2,30.16,NNW,333,3.0,4.0,94,0.00,,---,0.00,VWS V14.01,2013-07-30 10:57:00,
2013-07-30 06:59:00,60.9,58.9,30.17,NNW,332,0.0,4.0,93,0.00,,---,0.00,VWS V14.01,2013-07-30 10:59:00,
2013-07-30 07:00:00,60.9,58.9,30.17,NNW,332,0.0,4.0,93,0.00,,---,0.00,VWS V14.01,2013-07-30 11:00:00,
2013-07-30 07:01:00,61.0,59.0,30.17,NNW,332,0.0,3.0,93,0.00,,---,0.00,VWS V14.01,2013-07-30 11:01:00,
2013-07-30 07:03:00,61.0,59.0,30.17,NNW,332,2.0,3.0,93,0.00,,---,0.00,VWS V14.01,2013-07-30 11:03:00,
2013-07-30 07:05:00,61.0,59.0,30.17,NNW,332,0.0,3.0,93,0.00,,---,0.00,VWS V14.01,2013-07-30 11:05:00,
2013-07-30 07:07:00,61.0,59.0,30.17,NNW,332,0.0,3.0,93,0.00,,---,0.00,VWS V14.01,2013-07-30 11:07:00,
2013-07-30 07:09:00,61.2,58.9,30.17,NNW,332,0.0,3.0,92,0.00,,---,0.00,VWS V14.01,2013-07-30 11:09:00,
2013-07-30 07:11:00,61.2,58.9,30.17,NNW,335,0.0,4.0,92,0.00,,---,0.00,VWS V14.01,2013-07-30 11:11:00,
2013-07-30 07:13:00,61.2,58.9,30.17,NNW,345,0.0,4.0,92,0.00,,---,0.00,VWS V14.01,2013-07-30 11:13:00,
2013-07-30 07:15:00,61.2,58.6,30.17,NNW,345,0.0,4.0,91,0.00,,---,0.00,VWS V14.01,2013-07-30 11:15:00,
2013-07-30 07:17:00,61.3,58.3,30.17,NNW,343,0.0,3.0,90,0.00,,---,0.00,VWS V14.01,2013-07-30 11:17:00,
2013-07-30 07:19:00,61.3,58.3,30.17,NNW,342,3.0,3.0,90,0.00,,---,0.00,VWS V14.01,2013-07-30 11:19:00,
2013-07-30 07:21:00,61.3,58.3,30.17,NNW,330,3.0,3.0,90,0.00,,---,0.00,VWS V14.01,2013-07-30 11:21:00,
2013-07-30 07:23:00,61.5,58.5,30.17,NNW,338,0.0,3.0,90,0.00,,---,0.00,VWS V14.01,2013-07-30 11:23:00,
2013-07-30 07:25:00,61.5,58.5,30.17,NNW,338,4.0,4.0,90,0.00,,---,0.00,VWS V14.01,2013-07-30 11:25:00,
2013-07-30 07:27:00,61.5,58.2,30.17,NW,325,4.0,5.0,89,0.00,,---,0.00,VWS V14.01,2013-07-30 11:27:00,
2013-07-30 07:29:00,61.6,58.0,30.17,NW,325,0.0,5.0,88,0.00,,---,0.00,VWS V14.01,2013-07-30 11:29:00,
2013-07-30 07:30:00,61.6,58.0,30.17,NNW,342,0.0,5.0,88,0.00,,---,0.00,VWS V14.01,2013-07-30 11:30:00,
2013-07-30 07:31:00,61.6,58.0,30.17,NNW,342,0.0,0.0,88,0.00,,---,0.00,VWS V14.01,2013-07-30 11:31:00,
2013-07-30 07:33:00,61.8,57.9,30.17,North,1,0.0,4.0,87,0.00,,---,0.00,VWS V14.01,2013-07-30 11:33:00,
2013-07-30 07:35:00,61.8,57.9,30.17,North,358,0.0,4.0,87,0.00,,---,0.00,VWS V14.01,2013-07-30 11:35:00,
2013-07-30 07:37:00,62.0,57.8,30.17,North,358,1.0,4.0,86,0.00,,---,0.00,VWS V14.01,2013-07-30 11:37:00,
2013-07-30 07:39:00,62.1,57.9,30.17,North,356,0.0,4.0,86,0.00,,---,0.00,VWS V14.01,2013-07-30 11:39:00,
2013-07-30 07:41:00,62.1,57.9,30.17,North,356,0.0,4.0,86,0.00,,---,0.00,VWS V14.01,2013-07-30 11:41:00,
2013-07-30 07:43:00,62.3,57.7,30.17,North,355,0.0,4.0,85,0.00,,---,0.00,VWS V14.01,2013-07-30 11:43:00,
2013-07-30 07:45:00,62.4,58.2,30.17,North,355,0.0,4.0,86,0.00,,---,0.00,VWS V14.01,2013-07-30 11:45:00,
2013-07-30 07:47:00,62.6,58.0,30.17,North,355,0.0,0.0,85,0.00,,---,0.00,VWS V14.01,2013-07-30 11:47:00,
2013-07-30 07:49:00,62.7,57.8,30.17,North,355,0.0,0.0,84,0.00,,---,0.00,VWS V14.01,2013-07-30 11:49:00,
2013-07-30 07:51:00,62.9,58.0,30.17,North,355,0.0,0.0,84,0.00,,---,0.00,VWS V14.01,2013-07-30 11:51:00,
2013-07-30 07:53:00,63.1,57.9,30.17,North,355,0.0,0.0,83,0.00,,---,0.00,VWS V14.01,2013-07-30 11:53:00,
2013-07-30 07:55:00,63.2,58.0,30.17,North,355,0.0,0.0,83,0.00,,---,0.00,VWS V14.01,2013-07-30 11:55:00,
2013-07-30 07:57:00,63.4,58.2,30.17,North,355,0.0,0.0,83,0.00,,---,0.00,VWS V14.01,2013-07-30 11:57:00,
2013-07-30 07:59:00,63.5,57.6,30.17,North,355,0.0,0.0,81,0.00,,---,0.00,VWS V14.01,2013-07-30 11:59:00,
2013-07-30 08:00:00,63.5,57.6,30.17,North,355,0.0,0.0,81,0.00,,---,0.00,VWS V14.01,2013-07-30 12:00:00,
2013-07-30 08:01:00,63.7,57.4,30.17,North,355,0.0,0.0,80,0.00,,---,0.00,VWS V14.01,2013-07-30 12:01:00,
2013-07-30 08:03:00,63.9,57.6,30.17,North,355,0.0,0.0,80,0.00,,---,0.00,VWS V14.01,2013-07-30 12:03:00,
2013-07-30 08:07:00,64.3,58.0,30.17,North,355,0.0,0.0,80,0.00,,---,0.00,VWS V14.01,2013-07-30 12:07:00,
2013-07-30 08:11:00,64.8,57.8,30.17,North,355,2.0,2.0,78,0.00,,---,0.00,VWS V14.01,2013-07-30 12:11:00,
2013-07-30 08:13:00,65.2,57.5,30.17,NNW,342,0.0,5.0,76,0.00,,---,0.00,VWS V14.01,2013-07-30 12:13:00,
2013-07-30 08:15:00,65.3,57.5,30.17,NNW,342,0.0,5.0,76,0.00,,---,0.00,VWS V14.01,2013-07-30 12:15:00,
2013-07-30 08:17:00,65.6,57.8,30.17,NNW,344,0.0,0.0,76,0.00,,---,0.00,VWS V14.01,2013-07-30 12:17:00,
2013-07-30 08:19:00,65.8,57.3,30.17,North,358,0.0,0.0,74,0.00,,---,0.00,VWS V14.01,2013-07-30 12:19:00,
2013-07-30 08:22:00,64.2,57.9,30.17,North,355,0.0,0.0,80,0.00,,---,0.00,VWS V14.01,2013-07-30 12:22:00,
2013-07-30 08:24:00,66.3,57.4,30.17,NNW,345,0.0,3.0,73,0.00,,---,0.00,VWS V14.01,2013-07-30 12:24:00,
2013-07-30 08:26:00,66.4,57.5,30.17,NNW,345,0.0,3.0,73,0.00,,---,0.00,VWS V14.01,2013-07-30 12:26:00,
2013-07-30 08:28:00,66.6,57.7,30.17,NNW,345,0.0,3.0,73,0.00,,---,0.00,VWS V14.01,2013-07-30 12:28:00,
2013-07-30 08:30:00,66.8,57.9,30.18,North,1,0.0,3.0,73,0.00,,---,0.00,VWS V14.01,2013-07-30 12:30:00,
2013-07-30 08:32:00,66.9,58.3,30.18,NNW,342,2.0,2.0,74,0.00,,---,0.00,VWS V14.01,2013-07-30 12:32:00,
2013-07-30 08:34:00,67.1,57.8,30.18,NW,305,0.0,2.0,72,0.00,,---,0.00,VWS V14.01,2013-07-30 12:34:00,
2013-07-30 08:36:00,67.3,58.4,30.18,NNW,333,0.0,2.0,73,0.00,,---,0.00,VWS V14.01,2013-07-30 12:36:00,
2013-07-30 08:38:00,67.4,57.3,30.18,NW,318,0.0,6.0,70,0.00,,---,0.00,VWS V14.01,2013-07-30 12:38:00,
2013-07-30 08:40:00,67.4,57.3,30.18,NW,319,0.0,6.0,70,0.00,,---,0.00,VWS V14.01,2013-07-30 12:40:00,
2013-07-30 08:42:00,67.4,57.3,30.18,NW,319,0.0,6.0,70,0.00,,---,0.00,VWS V14.01,2013-07-30 12:42:00,
2013-07-30 08:44:00,67.8,57.3,30.19,NW,322,0.0,6.0,69,0.00,,---,0.00,VWS V14.01,2013-07-30 12:44:00,
2013-07-30 08:45:00,67.8,57.7,30.19,NW,322,0.0,6.0,70,0.00,,---,0.00,VWS V14.01,2013-07-30 12:45:00,
2013-07-30 08:46:00,67.9,57.8,30.19,NW,322,0.0,0.0,70,0.00,,---,0.00,VWS V14.01,2013-07-30 12:46:00,
2013-07-30 08:48:00,68.1,58.0,30.19,NW,322,0.0,0.0,70,0.00,,---,0.00,VWS V14.01,2013-07-30 12:48:00,
2013-07-30 08:50:00,68.1,58.0,30.19,NW,322,0.0,3.0,70,0.00,,---,0.00,VWS V14.01,2013-07-30 12:50:00,
2013-07-30 08:52:00,68.3,58.2,30.19,NW,322,0.0,4.0,70,0.00,,---,0.00,VWS V14.01,2013-07-30 12:52:00,
2013-07-30 08:54:00,68.4,57.8,30.19,NNW,333,0.0,4.0,69,0.00,,---,0.00,VWS V14.01,2013-07-30 12:54:00,
2013-07-30 08:56:00,68.6,58.0,30.19,NNW,331,0.0,4.0,69,0.00,,---,0.00,VWS V14.01,2013-07-30 12:56:00,
2013-07-30 08:58:00,68.6,58.0,30.19,NNW,331,0.0,4.0,69,0.00,,---,0.00,VWS V14.01,2013-07-30 12:58:00,
2013-07-30 09:00:00,68.8,58.2,30.18,NNW,331,0.0,4.0,69,0.00,,---,0.00,VWS V14.01,2013-07-30 13:00:00,
2013-07-30 09:02:00,68.9,58.7,30.18,NNW,331,0.0,0.0,70,0.00,,---,0.00,VWS V14.01,2013-07-30 13:02:00,
2013-07-30 09:04:00,68.9,58.7,30.18,NNW,331,2.0,4.0,70,0.00,,---,0.00,VWS V14.01,2013-07-30 13:04:00,
2013-07-30 09:06:00,69.1,58.9,30.18,NNW,331,0.0,4.0,70,0.00,,---,0.00,VWS V14.01,2013-07-30 13:06:00,
2013-07-30 09:08:00,69.3,59.1,30.18,North,1,0.0,5.0,70,0.00,,---,0.00,VWS V14.01,2013-07-30 13:08:00,
2013-07-30 09:10:00,69.3,57.9,30.18,NNW,330,5.0,5.0,67,0.00,,---,0.00,VWS V14.01,2013-07-30 13:10:00,
2013-07-30 09:12:00,69.4,58.4,30.18,NNW,344,0.0,5.0,68,0.00,,---,0.00,VWS V14.01,2013-07-30 13:12:00,
2013-07-30 09:14:00,69.4,57.6,30.18,NNW,330,1.0,5.0,66,0.00,,---,0.00,VWS V14.01,2013-07-30 13:14:00,
2013-07-30 09:15:00,69.4,58.0,30.18,NW,316,0.0,5.0,67,0.00,,---,0.00,VWS V14.01,2013-07-30 13:15:00,
2013-07-30 09:16:00,69.4,58.0,30.18,North,1,0.0,0.0,67,0.00,,---,0.00,VWS V14.01,2013-07-30 13:16:00,
2013-07-30 09:18:00,69.4,58.8,30.18,NNW,345,2.0,3.0,69,0.00,,---,0.00,VWS V14.01,2013-07-30 13:18:00,
2013-07-30 09:20:00,69.6,58.6,30.18,NNW,348,0.0,3.0,68,0.00,,---,0.00,VWS V14.01,2013-07-30 13:20:00,
2013-07-30 09:22:00,69.6,59.0,30.18,NW,313,5.0,5.0,69,0.00,,---,0.00,VWS V14.01,2013-07-30 13:22:00,
2013-07-30 09:24:00,69.6,57.8,30.18,NW,313,2.0,6.0,66,0.00,,---,0.00,VWS V14.01,2013-07-30 13:24:00,
2013-07-30 09:26:00,69.6,57.8,30.18,NW,313,0.0,6.0,66,0.00,,---,0.00,VWS V14.01,2013-07-30 13:26:00,
2013-07-30 09:28:00,69.8,58.4,30.18,NW,313,0.0,6.0,67,0.00,,---,0.00,VWS V14.01,2013-07-30 13:28:00,
2013-07-30 09:30:00,69.8,59.2,30.18,NW,313,0.0,6.0,69,0.00,,---,0.00,VWS V14.01,2013-07-30 13:30:00,
2013-07-30 09:32:00,69.8,58.8,30.18,NW,313,2.0,2.0,68,0.00,,---,0.00,VWS V14.01,2013-07-30 13:32:00,
2013-07-30 09:34:00,69.9,58.5,30.18,NW,316,2.0,3.0,67,0.00,,---,0.00,VWS V14.01,2013-07-30 13:34:00,
2013-07-30 09:36:00,69.9,59.3,30.18,NW,316,0.0,3.0,69,0.00,,---,0.00,VWS V14.01,2013-07-30 13:36:00,
2013-07-30 09:38:00,69.9,58.5,30.18,NNW,340,2.0,4.0,67,0.00,,---,0.00,VWS V14.01,2013-07-30 13:38:00,
2013-07-30 09:40:00,70.1,59.1,30.18,NNW,342,0.0,4.0,68,0.00,,---,0.00,VWS V14.01,2013-07-30 13:40:00,
2013-07-30 09:42:00,70.1,58.7,30.18,NW,313,2.0,4.0,67,0.00,,---,0.00,VWS V14.01,2013-07-30 13:42:00,
2013-07-30 09:44:00,70.1,58.7,30.18,NNW,331,5.0,5.0,67,0.00,,---,0.00,VWS V14.01,2013-07-30 13:44:00,
2013-07-30 09:45:00,70.3,58.8,30.18,NNW,332,0.0,5.0,67,0.00,,---,0.00,VWS V14.01,2013-07-30 13:45:00,
2013-07-30 09:46:00,70.4,58.5,30.18,NNW,332,0.0,0.0,66,0.00,,---,0.00,VWS V14.01,2013-07-30 13:46:00,
2013-07-30 09:48:00,70.6,59.1,30.18,NW,322,0.0,4.0,67,0.00,,---,0.00,VWS V14.01,2013-07-30 13:48:00,
2013-07-30 09:50:00,70.8,59.3,30.18,NNW,340,0.0,5.0,67,0.00,,---,0.00,VWS V14.01,2013-07-30 13:50:00,
2013-07-30 09:52:00,70.8,58.9,30.18,NW,326,0.0,5.0,66,0.00,,---,0.00,VWS V14.01,2013-07-30 13:52:00,
2013-07-30 09:54:00,70.9,59.0,30.18,North,11,0.0,5.0,66,0.00,,---,0.00,VWS V14.01,2013-07-30 13:54:00,
2013-07-30 09:56:00,71.1,59.6,30.18,NNW,342,0.0,5.0,67,0.00,,---,0.00,VWS V14.01,2013-07-30 13:56:00,
2013-07-30 09:58:00,71.3,58.9,30.18,NNW,344,0.0,5.0,65,0.00,,---,0.00,VWS V14.01,2013-07-30 13:58:00,
2013-07-30 10:00:00,71.5,58.7,30.17,NNW,333,2.0,5.0,64,0.00,,---,0.00,VWS V14.01,2013-07-30 14:00:00,
2013-07-30 10:02:00,71.6,58.8,30.17,NNW,335,3.0,4.0,64,0.00,,---,0.00,VWS V14.01,2013-07-30 14:02:00,
2013-07-30 10:04:00,71.8,59.4,30.17,NNW,335,0.0,4.0,65,0.00,,---,0.00,VWS V14.01,2013-07-30 14:04:00,
2013-07-30 10:06:00,71.8,59.8,30.17,North,1,0.0,4.0,66,0.00,,---,0.00,VWS V14.01,2013-07-30 14:06:00,
2013-07-30 10:08:00,72.0,59.2,30.17,North,3,0.0,4.0,64,0.00,,---,0.00,VWS V14.01,2013-07-30 14:08:00,
2013-07-30 10:10:00,72.3,59.5,30.17,North,3,0.0,4.0,64,0.00,,---,0.00,VWS V14.01,2013-07-30 14:10:00,
2013-07-30 10:12:00,72.5,58.8,30.17,North,3,0.0,4.0,62,0.00,,---,0.00,VWS V14.01,2013-07-30 14:12:00,
2013-07-30 10:14:00,72.8,60.4,30.17,North,3,0.0,4.0,65,0.00,,---,0.00,VWS V14.01,2013-07-30 14:14:00,
2013-07-30 10:15:00,72.8,60.4,30.17,North,3,0.0,4.0,65,0.00,,---,0.00,VWS V14.01,2013-07-30 14:15:00,
2013-07-30 10:16:00,73.2,60.3,30.17,North,3,0.0,0.0,64,0.00,,---,0.00,VWS V14.01,2013-07-30 14:16:00,
2013-07-30 10:18:00,73.3,60.0,30.17,North,3,0.0,0.0,63,0.00,,---,0.00,VWS V14.01,2013-07-30 14:18:00,
2013-07-30 10:20:00,73.5,58.3,30.17,North,3,0.0,1.0,59,0.00,,---,0.00,VWS V14.01,2013-07-30 14:20:00,
2013-07-30 10:22:00,73.7,57.5,30.17,North,3,0.0,1.0,57,0.00,,---,0.00,VWS V14.01,2013-07-30 14:22:00,
2013-07-30 10:24:00,74.0,58.8,30.17,North,3,0.0,1.0,59,0.00,,---,0.00,VWS V14.01,2013-07-30 14:24:00,
2013-07-30 10:26:00,74.4,58.7,30.17,North,3,0.0,1.0,58,0.00,,---,0.00,VWS V14.01,2013-07-30 14:26:00,
2013-07-30 10:28:00,74.6,58.9,30.17,NNE,23,3.0,3.0,58,0.00,,---,0.00,VWS V14.01,2013-07-30 14:28:00,
2013-07-30 10:30:00,74.7,58.0,30.17,North,352,0.0,3.0,56,0.00,,---,0.00,VWS V14.01,2013-07-30 14:30:00,
2013-07-30 10:32:00,74.9,58.2,30.17,NW,319,0.0,1.0,56,0.00,,---,0.00,VWS V14.01,2013-07-30 14:32:00,
2013-07-30 10:34:00,75.1,58.3,30.17,NNW,340,0.0,3.0,56,0.00,,---,0.00,VWS V14.01,2013-07-30 14:34:00,
2013-07-30 10:36:00,75.3,59.5,30.17,NNW,340,0.0,3.0,58,0.00,,---,0.00,VWS V14.01,2013-07-30 14:36:00,
2013-07-30 10:38:00,75.4,60.1,30.17,NNW,340,0.0,3.0,59,0.00,,---,0.00,VWS V14.01,2013-07-30 14:38:00,
2013-07-30 10:40:00,75.6,60.8,30.17,NNW,340,0.0,3.0,60,0.00,,---,0.00,VWS V14.01,2013-07-30 14:40:00,
2013-07-30 10:42:00,75.8,58.0,30.17,NNW,329,0.0,3.0,54,0.00,,---,0.00,VWS V14.01,2013-07-30 14:42:00,
2013-07-30 10:44:00,75.8,57.5,30.16,NNW,329,0.0,3.0,53,0.00,,---,0.00,VWS V14.01,2013-07-30 14:44:00,
2013-07-30 10:45:00,75.8,57.5,30.16,NNW,329,0.0,3.0,53,0.00,,---,0.00,VWS V14.01,2013-07-30 14:45:00,
2013-07-30 10:46:00,75.8,58.5,30.16,NNE,12,1.0,3.0,55,0.00,,---,0.00,VWS V14.01,2013-07-30 14:46:00,
2013-07-30 10:48:00,76.0,56.6,30.16,NNE,13,0.0,3.0,51,0.00,,---,0.00,VWS V14.01,2013-07-30 14:48:00,
2013-07-30 10:50:00,76.0,57.1,30.16,NNE,13,0.0,3.0,52,0.00,,---,0.00,VWS V14.01,2013-07-30 14:50:00,
2013-07-30 10:52:00,76.1,58.3,30.16,NNE,13,0.0,3.0,54,0.00,,---,0.00,VWS V14.01,2013-07-30 14:52:00,
2013-07-30 10:54:00,76.1,59.3,30.16,NNE,13,0.0,3.0,56,0.00,,---,0.00,VWS V14.01,2013-07-30 14:54:00,
2013-07-30 10:56:00,76.3,57.9,30.16,NNE,13,0.0,3.0,53,0.00,,---,0.00,VWS V14.01,2013-07-30 14:56:00,
2013-07-30 10:59:00,76.3,57.9,30.16,NNE,13,0.0,3.0,53,0.00,,---,0.00,VWS V14.01,2013-07-30 14:59:00,
2013-07-30 11:00:00,76.3,59.0,30.16,NNE,13,0.0,3.0,55,0.00,,---,0.00,VWS V14.01,2013-07-30 15:00:00,
2013-07-30 11:01:00,76.3,57.9,30.16,NNE,13,0.0,0.0,53,0.00,,---,0.00,VWS V14.01,2013-07-30 15:01:00,
2013-07-30 11:03:00,76.3,59.0,30.16,NNE,13,0.0,0.0,55,0.00,,---,0.00,VWS V14.01,2013-07-30 15:03:00,
2013-07-30 11:04:00,76.5,58.1,30.16,NNE,13,0.0,0.0,53,0.00,,---,0.00,VWS V14.01,2013-07-30 15:04:00,
2013-07-30 11:07:00,76.5,59.2,30.16,NNE,13,0.0,0.0,55,0.00,,---,0.00,VWS V14.01,2013-07-30 15:07:00,
2013-07-30 11:09:00,76.7,57.2,30.16,NNE,13,0.0,0.0,51,0.00,,---,0.00,VWS V14.01,2013-07-30 15:09:00,
2013-07-30 11:11:00,76.8,57.3,30.16,NNE,13,0.0,0.0,51,0.00,,---,0.00,VWS V14.01,2013-07-30 15:11:00,
2013-07-30 11:13:00,77.2,57.7,30.16,NNE,13,0.0,1.0,51,0.00,,---,0.00,VWS V14.01,2013-07-30 15:13:00,
2013-07-30 11:15:00,77.2,58.2,30.16,NNE,13,0.0,1.0,52,0.00,,---,0.00,VWS V14.01,2013-07-30 15:15:00,
2013-07-30 11:17:00,77.4,57.3,30.16,NNE,13,0.0,3.0,50,0.00,,---,0.00,VWS V14.01,2013-07-30 15:17:00,
2013-07-30 11:19:00,77.4,56.8,30.16,NNE,13,0.0,3.0,49,0.00,,---,0.00,VWS V14.01,2013-07-30 15:19:00,
2013-07-30 11:21:00,77.2,57.7,30.16,NNE,13,0.0,3.0,51,0.00,,---,0.00,VWS V14.01,2013-07-30 15:21:00,
2013-07-30 11:23:00,77.2,56.0,30.16,NNE,13,0.0,3.0,48,0.00,,---,0.00,VWS V14.01,2013-07-30 15:23:00,
2013-07-30 11:25:00,77.2,55.4,30.16,NNE,13,0.0,3.0,47,0.00,,---,0.00,VWS V14.01,2013-07-30 15:25:00,
2013-07-30 11:27:00,77.2,56.0,30.16,NNE,13,0.0,3.0,48,0.00,,---,0.00,VWS V14.01,2013-07-30 15:27:00,
2013-07-30 11:29:00,77.2,55.4,30.16,NNE,13,0.0,3.0,47,0.00,,---,0.00,VWS V14.01,2013-07-30 15:29:00,
2013-07-30 11:30:00,77.2,57.7,30.16,NNE,13,0.0,3.0,51,0.00,,---,0.00,VWS V14.01,2013-07-30 15:30:00,
2013-07-30 11:31:00,77.4,56.2,30.16,NNE,13,0.0,0.0,48,0.00,,---,0.00,VWS V14.01,2013-07-30 15:31:00,
2013-07-30 11:33:00,77.6,57.5,30.16,NNE,13,0.0,0.0,50,0.00,,---,0.00,VWS V14.01,2013-07-30 15:33:00,
2013-07-30 11:35:00,77.7,58.7,30.16,NNE,13,0.0,0.0,52,0.00,,---,0.00,VWS V14.01,2013-07-30 15:35:00,
2013-07-30 11:37:00,77.9,57.2,30.16,NNE,13,0.0,1.0,49,0.00,,---,0.00,VWS V14.01,2013-07-30 15:37:00,
2013-07-30 11:39:00,78.1,58.5,30.16,NNE,13,0.0,1.0,51,0.00,,---,0.00,VWS V14.01,2013-07-30 15:39:00,
2013-07-30 11:41:00,78.1,56.2,30.16,NNE,13,0.0,1.0,47,0.00,,---,0.00,VWS V14.01,2013-07-30 15:41:00,
2013-07-30 11:43:00,78.3,58.7,30.16,NNE,13,1.0,3.0,51,0.00,,---,0.00,VWS V14.01,2013-07-30 15:43:00,
2013-07-30 11:45:00,78.3,56.4,30.16,NNE,13,0.0,3.0,47,0.00,,---,0.00,VWS V14.01,2013-07-30 15:45:00,
2013-07-30 11:47:00,78.6,57.3,30.16,NNE,13,0.0,0.0,48,0.00,,---,0.00,VWS V14.01,2013-07-30 15:47:00,
2013-07-30 11:49:00,79.0,57.7,30.16,NNE,13,0.0,0.0,48,0.00,,---,0.00,VWS V14.01,2013-07-30 15:49:00,
2013-07-30 11:51:00,79.2,57.8,30.16,NNE,13,0.0,0.0,48,0.00,,---,0.00,VWS V14.01,2013-07-30 15:51:00,
2013-07-30 11:53:00,79.6,56.4,30.16,NNE,13,0.0,1.0,45,0.00,,---,0.00,VWS V14.01,2013-07-30 15:53:00,
2013-07-30 11:55:00,79.9,57.3,30.16,NNE,13,0.0,1.0,46,0.00,,---,0.00,VWS V14.01,2013-07-30 15:55:00,
2013-07-30 11:57:00,80.3,58.8,30.16,NNE,13,0.0,1.0,48,0.00,,---,0.00,VWS V14.01,2013-07-30 15:57:00,
2013-07-30 11:59:00,80.3,59.4,30.16,NNE,13,0.0,1.0,49,0.00,,---,0.00,VWS V14.01,2013-07-30 15:59:00,
2013-07-30 12:00:00,80.5,59.0,30.16,NNE,13,0.0,1.0,48,0.00,,---,0.00,VWS V14.01,2013-07-30 16:00:00,
2013-07-30 12:01:00,80.5,59.6,30.16,NNE,13,0.0,0.0,49,0.00,,---,0.00,VWS V14.01,2013-07-30 16:01:00,
2013-07-30 12:03:00,80.7,56.8,30.16,NNE,13,0.0,0.0,44,0.00,,---,0.00,VWS V14.01,2013-07-30 16:03:00,
2013-07-30 12:05:00,80.9,57.0,30.16,NNE,13,0.0,0.0,44,0.00,,---,0.00,VWS V14.01,2013-07-30 16:05:00,
2013-07-30 12:07:00,80.7,58.6,30.16,NNE,13,0.0,0.0,47,0.00,,---,0.00,VWS V14.01,2013-07-30 16:07:00,
2013-07-30 12:09:00,80.7,56.8,30.16,NNE,13,0.0,1.0,44,0.00,,---,0.00,VWS V14.01,2013-07-30 16:09:00,
2013-07-30 12:11:00,80.9,57.6,30.16,NNE,13,0.0,1.0,45,0.00,,---,0.00,VWS V14.01,2013-07-30 16:11:00,
2013-07-30 12:13:00,81.1,58.4,30.16,NNE,13,0.0,1.0,46,0.00,,---,0.00,VWS V14.01,2013-07-30 16:13:00,
2013-07-30 12:15:00,81.1,57.2,30.15,NNE,13,0.0,1.0,44,0.00,,---,0.00,VWS V14.01,2013-07-30 16:15:00,
2013-07-30 12:17:00,81.2,55.3,30.15,NNE,13,0.0,1.0,41,0.00,,---,0.00,VWS V14.01,2013-07-30 16:17:00,
2013-07-30 12:19:00,81.2,56.6,30.15,NNE,13,0.0,1.0,43,0.00,,---,0.00,VWS V14.01,2013-07-30 16:19:00,
2013-07-30 12:21:00,81.2,57.2,30.15,NNE,13,0.0,1.0,44,0.00,,---,0.00,VWS V14.01,2013-07-30 16:21:00,
2013-07-30 12:23:00,81.1,58.4,30.15,NNE,13,0.0,1.0,46,0.00,,---,0.00,VWS V14.01,2013-07-30 16:23:00,
2013-07-30 12:25:00,81.1,59.6,30.15,NNE,13,0.0,1.0,48,0.00,,---,0.00,VWS V14.01,2013-07-30 16:25:00,
2013-07-30 12:27:00,80.9,58.2,30.15,NNE,13,0.0,1.0,46,0.00,,---,0.00,VWS V14.01,2013-07-30 16:27:00,
2013-07-30 12:29:00,80.5,56.0,30.15,NNE,13,0.0,1.0,43,0.00,,---,0.00,VWS V14.01,2013-07-30 16:29:00,
2013-07-30 12:30:00,80.5,56.0,30.15,NNE,13,0.0,1.0,43,0.00,,---,0.00,VWS V14.01,2013-07-30 16:30:00,
2013-07-30 12:31:00,80.5,56.0,30.15,NNE,13,0.0,0.0,43,0.00,,---,0.00,VWS V14.01,2013-07-30 16:31:00,
2013-07-30 12:33:00,80.1,57.5,30.15,North,359,2.0,2.0,46,0.00,,---,0.00,VWS V14.01,2013-07-30 16:33:00,
2013-07-30 12:35:00,79.8,56.6,30.15,North,359,0.0,2.0,45,0.00,,---,0.00,VWS V14.01,2013-07-30 16:35:00,
2013-07-30 12:37:00,79.6,59.3,30.15,North,359,0.0,2.0,50,0.00,,---,0.00,VWS V14.01,2013-07-30 16:37:00,
2013-07-30 12:39:00,79.4,57.4,30.15,North,0,0.0,2.0,47,0.00,,---,0.00,VWS V14.01,2013-07-30 16:39:00,
2013-07-30 12:41:00,79.0,56.5,30.15,North,359,0.0,2.0,46,0.00,,---,0.00,VWS V14.01,2013-07-30 16:41:00,
2013-07-30 12:43:00,78.6,57.9,30.15,NNW,331,0.0,4.0,49,0.00,,---,0.00,VWS V14.01,2013-07-30 16:43:00,
2013-07-30 12:45:00,78.5,58.9,30.14,NNW,331,0.0,4.0,51,0.00,,---,0.00,VWS V14.01,2013-07-30 16:45:00,
2013-07-30 12:47:00,78.3,59.2,30.14,NNW,331,0.0,0.0,52,0.00,,---,0.00,VWS V14.01,2013-07-30 16:47:00,
2013-07-30 12:49:00,78.3,60.3,30.14,NNW,331,0.0,0.0,54,0.00,,---,0.00,VWS V14.01,2013-07-30 16:49:00,
2013-07-30 12:51:00,78.3,59.2,30.14,NNW,331,0.0,0.0,52,0.00,,---,0.00,VWS V14.01,2013-07-30 16:51:00,
2013-07-30 12:53:00,78.5,58.9,30.14,NNW,331,0.0,0.0,51,0.00,,---,0.00,VWS V14.01,2013-07-30 16:53:00,
2013-07-30 12:55:00,78.5,58.3,30.14,NNW,331,0.0,1.0,50,0.00,,---,0.00,VWS V14.01,2013-07-30 16:55:00,
2013-07-30 12:57:00,78.5,60.0,30.14,NNW,331,0.0,1.0,53,0.00,,---,0.00,VWS V14.01,2013-07-30 16:57:00,
2013-07-30 12:59:00,78.6,60.1,30.14,NNW,331,0.0,1.0,53,0.00,,---,0.00,VWS V14.01,2013-07-30 16:59:00,
2013-07-30 13:00:00,78.6,60.1,30.14,NNW,331,0.0,1.0,53,0.00,,---,0.00,VWS V14.01,2013-07-30 17:00:00,
2013-07-30 13:01:00,78.6,59.5,30.14,North,352,0.0,2.0,52,0.00,,---,0.00,VWS V14.01,2013-07-30 17:01:00,
2013-07-30 13:03:00,78.8,59.2,30.14,North,352,0.0,2.0,51,0.00,,---,0.00,VWS V14.01,2013-07-30 17:03:00,
2013-07-30 13:05:00,78.8,59.2,30.14,North,352,0.0,2.0,51,0.00,,---,0.00,VWS V14.01,2013-07-30 17:05:00,
2013-07-30 13:07:00,79.0,60.4,30.14,North,352,0.0,2.0,53,0.00,,---,0.00,VWS V14.01,2013-07-30 17:07:00,
2013-07-30 13:09:00,79.0,57.1,30.14,WSW,240,3.0,3.0,47,0.00,,---,0.00,VWS V14.01,2013-07-30 17:09:00,
2013-07-30 13:12:00,78.8,57.5,30.14,WSW,240,0.0,3.0,48,0.00,,---,0.00,VWS V14.01,2013-07-30 17:12:00,
2013-07-30 13:13:00,78.8,58.0,30.14,WSW,240,0.0,3.0,49,0.00,,---,0.00,VWS V14.01,2013-07-30 17:13:00,
2013-07-30 13:15:00,78.8,57.5,30.14,WSW,240,0.0,3.0,48,0.00,,---,0.00,VWS V14.01,2013-07-30 17:15:00,
2013-07-30 13:16:00,78.8,58.0,30.14,WSW,240,0.0,1.0,49,0.00,,---,0.00,VWS V14.01,2013-07-30 17:16:00,
2013-07-30 13:18:00,79.0,58.8,30.14,WSW,240,0.0,1.0,50,0.00,,---,0.00,VWS V14.01,2013-07-30 17:18:00,
2013-07-30 13:20:00,79.4,58.0,30.14,WSW,240,0.0,1.0,48,0.00,,---,0.00,VWS V14.01,2013-07-30 17:20:00,
2013-07-30 13:22:00,79.8,58.4,30.14,WSW,240,0.0,1.0,48,0.00,,---,0.00,VWS V14.01,2013-07-30 17:22:00,
2013-07-30 13:24:00,80.3,60.5,30.14,WSW,240,0.0,1.0,51,0.00,,---,0.00,VWS V14.01,2013-07-30 17:24:00,
2013-07-30 13:25:00,80.9,61.6,30.14,WSW,240,0.0,1.0,52,0.00,,---,0.00,VWS V14.01,2013-07-30 17:25:00,
2013-07-30 13:27:00,81.4,62.1,30.14,NE,55,0.0,1.0,52,0.00,,---,0.00,VWS V14.01,2013-07-30 17:27:00,
2013-07-30 13:30:00,82.0,61.0,30.13,SE,139,0.0,4.0,49,0.00,,---,0.00,VWS V14.01,2013-07-30 17:30:00,
2013-07-30 13:32:00,82.4,60.8,30.13,NE,44,0.0,0.0,48,0.00,,---,0.00,VWS V14.01,2013-07-30 17:32:00,
2013-07-30 13:34:00,82.6,60.3,30.13,NE,44,0.0,0.0,47,0.00,,---,0.00,VWS V14.01,2013-07-30 17:34:00,
2013-07-30 13:36:00,82.6,60.3,30.13,SE,135,0.0,1.0,47,0.00,,---,0.00,VWS V14.01,2013-07-30 17:36:00,
2013-07-30 13:38:00,82.8,59.9,30.13,SE,135,0.0,1.0,46,0.00,,---,0.00,VWS V14.01,2013-07-30 17:38:00,
2013-07-30 13:40:00,82.4,59.6,30.13,SE,135,0.0,1.0,46,0.00,,---,0.00,VWS V14.01,2013-07-30 17:40:00,
2013-07-30 13:42:00,82.0,59.8,30.13,SE,135,0.0,1.0,47,0.00,,---,0.00,VWS V14.01,2013-07-30 17:42:00,
2013-07-30 13:44:00,81.8,60.2,30.13,SE,135,0.0,1.0,48,0.00,,---,0.00,VWS V14.01,2013-07-30 17:44:00,
2013-07-30 13:45:00,81.4,59.8,30.13,SE,135,0.0,1.0,48,0.00,,---,0.00,VWS V14.01,2013-07-30 17:45:00,
2013-07-30 13:46:00,81.4,59.3,30.13,SE,135,0.0,0.0,47,0.00,,---,0.00,VWS V14.01,2013-07-30 17:46:00,
2013-07-30 13:48:00,81.1,60.7,30.13,SE,135,0.0,0.0,50,0.00,,---,0.00,VWS V14.01,2013-07-30 17:48:00,
2013-07-30 13:50:00,80.5,59.0,30.13,SE,141,0.0,0.0,48,0.00,,---,0.00,VWS V14.01,2013-07-30 17:50:00,
2013-07-30 13:52:00,80.3,60.5,30.13,SE,141,0.0,0.0,51,0.00,,---,0.00,VWS V14.01,2013-07-30 17:52:00,
2013-07-30 13:54:00,80.1,60.4,30.13,SSW,197,0.0,1.0,51,0.00,,---,0.00,VWS V14.01,2013-07-30 17:54:00,
2013-07-30 13:56:00,79.8,59.0,30.13,WSW,257,0.0,1.0,49,0.00,,---,0.00,VWS V14.01,2013-07-30 17:56:00,
2013-07-30 13:58:00,79.6,58.8,30.13,WSW,257,0.0,1.0,49,0.00,,---,0.00,VWS V14.01,2013-07-30 17:58:00,
2013-07-30 14:00:00,79.6,60.4,30.12,WSW,257,0.0,1.0,52,0.00,,---,0.00,VWS V14.01,2013-07-30 18:00:00,
2013-07-30 14:02:00,79.8,61.2,30.12,WSW,257,0.0,0.0,53,0.00,,---,0.00,VWS V14.01,2013-07-30 18:02:00,
2013-07-30 14:04:00,79.9,59.6,30.12,SE,146,0.0,3.0,50,0.00,,---,0.00,VWS V14.01,2013-07-30 18:04:00,
2013-07-30 14:06:00,80.3,57.7,30.12,SE,132,0.0,3.0,46,0.00,,---,0.00,VWS V14.01,2013-07-30 18:06:00,
2013-07-30 14:08:00,80.9,58.2,30.12,SE,136,0.0,3.0,46,0.00,,---,0.00,VWS V14.01,2013-07-30 18:08:00,
2013-07-30 14:10:00,81.2,58.5,30.12,SE,136,0.0,3.0,46,0.00,,---,0.00,VWS V14.01,2013-07-30 18:10:00,
2013-07-30 14:12:00,81.8,59.0,30.12,SE,142,0.0,3.0,46,0.00,,---,0.00,VWS V14.01,2013-07-30 18:12:00,
2013-07-30 14:14:00,82.4,59.6,30.12,SE,144,0.0,3.0,46,0.00,,---,0.00,VWS V14.01,2013-07-30 18:14:00,
2013-07-30 14:15:00,82.4,59.6,30.12,SE,144,0.0,3.0,46,0.00,,---,0.00,VWS V14.01,2013-07-30 18:15:00,
2013-07-30 14:16:00,82.6,59.8,30.12,SE,144,0.0,0.0,46,0.00,,---,0.00,VWS V14.01,2013-07-30 18:16:00,
2013-07-30 14:18:00,82.8,59.9,30.12,SE,144,0.0,0.0,46,0.00,,---,0.00,VWS V14.01,2013-07-30 18:18:00,
2013-07-30 14:20:00,83.0,59.5,30.12,SE,144,0.0,0.0,45,0.00,,---,0.00,VWS V14.01,2013-07-30 18:20:00,
2013-07-30 14:22:00,82.8,58.0,30.12,SE,145,0.0,0.0,43,0.00,,---,0.00,VWS V14.01,2013-07-30 18:22:00,
2013-07-30 14:24:00,82.6,59.8,30.12,SSE,168,0.0,0.0,46,0.00,,---,0.00,VWS V14.01,2013-07-30 18:24:00,
2013-07-30 14:26:00,82.2,57.5,30.12,SSE,168,0.0,0.0,43,0.00,,---,0.00,VWS V14.01,2013-07-30 18:26:00,
2013-07-30 14:28:00,81.8,57.1,30.12,WSW,249,1.0,2.0,43,0.00,,---,0.00,VWS V14.01,2013-07-30 18:28:00,
2013-07-30 14:30:00,81.2,58.5,30.12,WSW,257,0.0,2.0,46,0.00,,---,0.00,VWS V14.01,2013-07-30 18:30:00,
2013-07-30 14:32:00,80.9,60.0,30.12,WSW,257,0.0,1.0,49,0.00,,---,0.00,VWS V14.01,2013-07-30 18:32:00,
2013-07-30 14:34:00,80.5,59.6,30.12,WSW,257,0.0,1.0,49,0.00,,---,0.00,VWS V14.01,2013-07-30 18:34:00,
2013-07-30 14:36:00,80.3,58.2,30.12,WSW,257,0.0,1.0,47,0.00,,---,0.00,VWS V14.01,2013-07-30 18:36:00,
2013-07-30 14:38:00,80.1,58.1,30.12,WSW,257,0.0,1.0,47,0.00,,---,0.00,VWS V14.01,2013-07-30 18:38:00,
2013-07-30 14:40:00,80.3,59.4,30.12,SE,146,0.0,1.0,49,0.00,,---,0.00,VWS V14.01,2013-07-30 18:40:00,
2013-07-30 14:42:00,80.7,59.8,30.12,South,191,0.0,1.0,49,0.00,,---,0.00,VWS V14.01,2013-07-30 18:42:00,
2013-07-30 14:44:00,81.1,59.0,30.12,South,191,0.0,1.0,47,0.00,,---,0.00,VWS V14.01,2013-07-30 18:44:00,
2013-07-30 14:45:00,81.1,59.0,30.12,South,191,0.0,1.0,47,0.00,,---,0.00,VWS V14.01,2013-07-30 18:45:00,
2013-07-30 14:46:00,81.2,59.7,30.12,South,191,0.0,0.0,48,0.00,,---,0.00,VWS V14.01,2013-07-30 18:46:00,
2013-07-30 14:48:00,81.4,61.5,30.12,South,191,0.0,0.0,51,0.00,,---,0.00,VWS V14.01,2013-07-30 18:48:00,
2013-07-30 14:50:00,81.6,59.4,30.12,South,191,0.0,0.0,47,0.00,,---,0.00,VWS V14.01,2013-07-30 18:50:00,
2013-07-30 14:52:00,81.8,61.9,30.12,South,191,0.0,0.0,51,0.00,,---,0.00,VWS V14.01,2013-07-30 18:52:00,
2013-07-30 14:54:00,82.0,59.8,30.12,SSW,210,0.0,1.0,47,0.00,,---,0.00,VWS V14.01,2013-07-30 18:54:00,
2013-07-30 14:56:00,82.0,60.4,30.12,SW,220,0.0,1.0,48,0.00,,---,0.00,VWS V14.01,2013-07-30 18:56:00,
2013-07-30 14:58:00,82.2,59.4,30.12,SW,217,0.0,1.0,46,0.00,,---,0.00,VWS V14.01,2013-07-30 18:58:00,
2013-07-30 15:00:00,82.4,63.6,30.11,SW,217,1.0,1.0,53,0.00,,---,0.00,VWS V14.01,2013-07-30 19:00:00,
2013-07-30 15:02:00,82.0,58.0,30.11,SW,217,0.0,1.0,44,0.00,,---,0.00,VWS V14.01,2013-07-30 19:02:00,
2013-07-30 15:04:00,81.8,60.2,30.11,WNW,283,0.0,1.0,48,0.00,,---,0.00,VWS V14.01,2013-07-30 19:04:00,
2013-07-30 15:06:00,81.8,60.8,30.11,WNW,283,0.0,1.0,49,0.00,,---,0.00,VWS V14.01,2013-07-30 19:06:00,
2013-07-30 15:08:00,81.8,60.2,30.11,WNW,284,0.0,1.0,48,0.00,,---,0.00,VWS V14.01,2013-07-30 19:08:00,
2013-07-30 15:10:00,82.0,59.8,30.11,South,169,0.0,1.0,47,0.00,,---,0.00,VWS V14.01,2013-07-30 19:10:00,
2013-07-30 15:12:00,82.2,61.2,30.11,SSE,165,0.0,1.0,49,0.00,,---,0.00,VWS V14.01,2013-07-30 19:12:00,
2013-07-30 15:14:00,82.6,59.8,30.11,SSE,165,0.0,1.0,46,0.00,,---,0.00,VWS V14.01,2013-07-30 19:14:00,
2013-07-30 15:15:00,82.6,60.3,30.11,SSE,165,0.0,1.0,47,0.00,,---,0.00,VWS V14.01,2013-07-30 19:15:00,
2013-07-30 15:16:00,82.8,60.5,30.11,SE,137,0.0,3.0,47,0.00,,---,0.00,VWS V14.01,2013-07-30 19:16:00,
2013-07-30 15:18:00,83.2,59.7,30.11,SE,129,0.0,3.0,45,0.00,,---,0.00,VWS V14.01,2013-07-30 19:18:00,
2013-07-30 15:20:00,83.6,59.4,30.11,SE,129,0.0,3.0,44,0.00,,---,0.00,VWS V14.01,2013-07-30 19:20:00,
2013-07-30 15:22:00,84.0,61.6,30.11,SSE,154,0.0,4.0,47,0.00,,---,0.00,VWS V14.01,2013-07-30 19:22:00,
2013-07-30 15:24:00,84.1,61.7,30.11,SSE,154,0.0,4.0,47,0.00,,---,0.00,VWS V14.01,2013-07-30 19:24:00,
2013-07-30 15:26:00,83.8,58.9,30.11,WNW,288,0.0,4.0,43,0.00,,---,0.00,VWS V14.01,2013-07-30 19:26:00,
2013-07-30 15:28:00,83.8,61.4,30.11,WNW,292,0.0,4.0,47,0.00,,---,0.00,VWS V14.01,2013-07-30 19:28:00,
2013-07-30 15:30:00,83.8,60.8,30.10,South,175,0.0,4.0,46,0.00,,---,0.00,VWS V14.01,2013-07-30 19:30:00,
2013-07-30 15:32:00,84.1,60.5,30.10,SSE,160,0.0,4.0,45,0.00,,---,0.00,VWS V14.01,2013-07-30 19:32:00,
2013-07-30 15:34:00,84.3,60.0,30.10,ESE,116,0.0,4.0,44,0.00,,---,0.00,VWS V14.01,2013-07-30 19:34:00,
2013-07-30 15:37:00,84.7,61.0,30.10,ESE,116,0.0,4.0,45,0.00,,---,0.00,VWS V14.01,2013-07-30 19:37:00,
2013-07-30 15:39:00,84.1,59.9,30.10,West,259,0.0,4.0,44,0.00,,---,0.00,VWS V14.01,2013-07-30 19:39:00,
2013-07-30 15:40:00,83.4,60.5,30.10,WSW,250,0.0,4.0,46,0.00,,---,0.00,VWS V14.01,2013-07-30 19:40:00,
2013-07-30 15:43:00,82.8,61.1,30.10,WSW,250,0.0,4.0,48,0.00,,---,0.00,VWS V14.01,2013-07-30 19:43:00,
2013-07-30 15:45:00,82.6,60.9,30.10,SE,141,0.0,4.0,48,0.00,,---,0.00,VWS V14.01,2013-07-30 19:45:00,
2013-07-30 15:47:00,82.4,59.6,30.10,SE,141,0.0,0.0,46,0.00,,---,0.00,VWS V14.01,2013-07-30 19:47:00,
2013-07-30 15:49:00,82.4,60.8,30.10,SE,141,0.0,0.0,48,0.00,,---,0.00,VWS V14.01,2013-07-30 19:49:00,
2013-07-30 15:51:00,82.2,61.7,30.10,SE,141,0.0,0.0,50,0.00,,---,0.00,VWS V14.01,2013-07-30 19:51:00,
2013-07-30 15:53:00,82.0,61.0,30.10,SE,141,0.0,0.0,49,0.00,,---,0.00,VWS V14.01,2013-07-30 19:53:00,
2013-07-30 15:55:00,81.8,63.0,30.10,SE,134,0.0,1.0,53,0.00,,---,0.00,VWS V14.01,2013-07-30 19:55:00,
2013-07-30 15:57:00,81.8,61.4,30.10,SE,134,0.0,1.0,50,0.00,,---,0.00,VWS V14.01,2013-07-30 19:57:00,
2013-07-30 15:59:00,81.4,60.4,30.10,SE,134,0.0,1.0,49,0.00,,---,0.00,VWS V14.01,2013-07-30 19:59:00,
2013-07-30 16:00:00,81.2,59.7,30.10,SE,134,0.0,1.0,48,0.00,,---,0.00,VWS V14.01,2013-07-30 20:00:00,
2013-07-30 16:01:00,81.1,60.2,30.10,SE,134,0.0,0.0,49,0.00,,---,0.00,VWS V14.01,2013-07-30 20:01:00,
2013-07-30 16:03:00,80.7,60.9,30.10,SE,134,0.0,0.0,51,0.00,,---,0.00,VWS V14.01,2013-07-30 20:03:00,
2013-07-30 16:05:00,80.5,60.2,30.10,SE,134,0.0,0.0,50,0.00,,---,0.00,VWS V14.01,2013-07-30 20:05:00,
2013-07-30 16:07:00,80.5,61.8,30.10,SE,134,0.0,0.0,53,0.00,,---,0.00,VWS V14.01,2013-07-30 20:07:00,
2013-07-30 16:09:00,80.3,62.7,30.10,SE,134,0.0,0.0,55,0.00,,---,0.00,VWS V14.01,2013-07-30 20:09:00,
2013-07-30 16:11:00,80.3,62.7,30.10,SE,134,0.0,0.0,55,0.00,,---,0.00,VWS V14.01,2013-07-30 20:11:00,
2013-07-30 16:13:00,80.1,63.0,30.10,SE,134,0.0,0.0,56,0.00,,---,0.00,VWS V14.01,2013-07-30 20:13:00,
2013-07-30 16:15:00,79.9,62.8,30.11,WNW,302,0.0,1.0,56,0.00,,---,0.00,VWS V14.01,2013-07-30 20:15:00,
2013-07-30 16:17:00,79.8,62.2,30.11,WNW,302,0.0,0.0,55,0.00,,---,0.00,VWS V14.01,2013-07-30 20:17:00,
2013-07-30 16:19:00,79.6,62.0,30.11,WNW,302,0.0,0.0,55,0.00,,---,0.00,VWS V14.01,2013-07-30 20:19:00,
2013-07-30 16:21:00,79.2,62.7,30.11,WNW,302,0.0,0.0,57,0.00,,---,0.00,VWS V14.01,2013-07-30 20:21:00,
2013-07-30 16:23:00,79.2,62.7,30.11,WNW,302,0.0,0.0,57,0.00,,---,0.00,VWS V14.01,2013-07-30 20:23:00,
2013-07-30 16:25:00,79.2,62.2,30.11,WNW,302,0.0,0.0,56,0.00,,---,0.00,VWS V14.01,2013-07-30 20:25:00,
2013-07-30 16:27:00,79.2,62.2,30.11,WNW,302,0.0,0.0,56,0.00,,---,0.00,VWS V14.01,2013-07-30 20:27:00,
2013-07-30 16:29:00,79.2,62.7,30.11,WNW,302,0.0,0.0,57,0.00,,---,0.00,VWS V14.01,2013-07-30 20:29:00,
2013-07-30 16:30:00,79.4,62.3,30.11,WNW,302,0.0,0.0,56,0.00,,---,0.00,VWS V14.01,2013-07-30 20:30:00,
2013-07-30 16:31:00,79.4,62.9,30.11,WNW,302,0.0,0.0,57,0.00,,---,0.00,VWS V14.01,2013-07-30 20:31:00,
2013-07-30 16:33:00,79.6,62.5,30.11,WNW,302,0.0,0.0,56,0.00,,---,0.00,VWS V14.01,2013-07-30 20:33:00,
2013-07-30 16:35:00,79.6,62.5,30.11,WNW,302,0.0,0.0,56,0.00,,---,0.00,VWS V14.01,2013-07-30 20:35:00,
2013-07-30 16:37:00,79.8,62.7,30.11,WNW,302,0.0,0.0,56,0.00,,---,0.00,VWS V14.01,2013-07-30 20:37:00,
2013-07-30 16:39:00,79.9,62.3,30.11,WNW,302,0.0,0.0,55,0.00,,---,0.00,VWS V14.01,2013-07-30 20:39:00,
2013-07-30 16:41:00,80.1,63.0,30.11,WNW,302,0.0,0.0,56,0.00,,---,0.00,VWS V14.01,2013-07-30 20:41:00,
2013-07-30 16:43:00,80.3,62.7,30.11,WNW,302,0.0,0.0,55,0.00,,---,0.00,VWS V14.01,2013-07-30 20:43:00,
2013-07-30 16:45:00,80.3,63.2,30.10,WNW,302,0.0,0.0,56,0.00,,---,0.00,VWS V14.01,2013-07-30 20:45:00,
2013-07-30 16:47:00,80.5,63.4,30.10,WNW,302,0.0,0.0,56,0.00,,---,0.00,VWS V14.01,2013-07-30 20:47:00,
2013-07-30 16:49:00,80.5,63.4,30.10,WNW,302,0.0,0.0,56,0.00,,---,0.00,VWS V14.01,2013-07-30 20:49:00,
2013-07-30 16:51:00,80.5,63.4,30.10,WNW,302,0.0,0.0,56,0.00,,---,0.00,VWS V14.01,2013-07-30 20:51:00,
2013-07-30 16:53:00,80.5,63.4,30.10,WNW,302,0.0,0.0,56,0.00,,---,0.00,VWS V14.01,2013-07-30 20:53:00,
2013-07-30 16:55:00,80.5,63.9,30.10,WNW,302,0.0,0.0,57,0.00,,---,0.00,VWS V14.01,2013-07-30 20:55:00,
2013-07-30 16:57:00,80.5,63.9,30.10,WNW,302,0.0,0.0,57,0.00,,---,0.00,VWS V14.01,2013-07-30 20:57:00,
2013-07-30 16:59:00,80.3,64.2,30.10,WNW,302,0.0,0.0,58,0.00,,---,0.00,VWS V14.01,2013-07-30 20:59:00,
2013-07-30 17:00:00,80.3,64.2,30.10,WNW,302,0.0,0.0,58,0.00,,---,0.00,VWS V14.01,2013-07-30 21:00:00,
2013-07-30 17:01:00,80.3,63.7,30.10,WNW,302,0.0,0.0,57,0.00,,---,0.00,VWS V14.01,2013-07-30 21:01:00,
2013-07-30 17:03:00,80.1,65.0,30.10,WNW,302,0.0,0.0,60,0.00,,---,0.00,VWS V14.01,2013-07-30 21:03:00,
2013-07-30 17:05:00,79.9,64.8,30.10,WNW,302,0.0,0.0,60,0.00,,---,0.00,VWS V14.01,2013-07-30 21:05:00,
2013-07-30 17:07:00,79.8,64.2,30.10,WNW,302,0.0,0.0,59,0.00,,---,0.00,VWS V14.01,2013-07-30 21:07:00,
2013-07-30 17:09:00,79.4,63.3,30.10,WNW,302,0.0,0.0,58,0.00,,---,0.00,VWS V14.01,2013-07-30 21:09:00,
2013-07-30 17:11:00,79.4,62.9,30.10,WNW,302,0.0,0.0,57,0.00,,---,0.00,VWS V14.01,2013-07-30 21:11:00,
2013-07-30 17:13:00,79.2,62.2,30.10,WNW,302,0.0,0.0,56,0.00,,---,0.00,VWS V14.01,2013-07-30 21:13:00,
2013-07-30 17:15:00,79.2,62.7,30.10,WNW,302,0.0,0.0,57,0.00,,---,0.00,VWS V14.01,2013-07-30 21:15:00,
2013-07-30 17:17:00,79.4,62.9,30.10,WNW,302,0.0,0.0,57,0.00,,---,0.00,VWS V14.01,2013-07-30 21:17:00,
2013-07-30 17:19:00,79.4,63.3,30.10,WNW,302,0.0,0.0,58,0.00,,---,0.00,VWS V14.01,2013-07-30 21:19:00,
2013-07-30 17:21:00,79.4,63.8,30.10,WNW,302,0.0,0.0,59,0.00,,---,0.00,VWS V14.01,2013-07-30 21:21:00,
2013-07-30 17:23:00,79.4,63.3,30.10,WNW,302,0.0,0.0,58,0.00,,---,0.00,VWS V14.01,2013-07-30 21:23:00,
2013-07-30 17:25:00,79.4,62.3,30.10,WNW,302,0.0,0.0,56,0.00,,---,0.00,VWS V14.01,2013-07-30 21:25:00,
2013-07-30 17:27:00,79.4,62.3,30.10,WNW,302,0.0,0.0,56,0.00,,---,0.00,VWS V14.01,2013-07-30 21:27:00,
2013-07-30 17:29:00,79.4,62.3,30.10,WNW,302,0.0,0.0,56,0.00,,---,0.00,VWS V14.01,2013-07-30 21:29:00,
2013-07-30 17:30:00,79.4,62.3,30.10,WNW,302,0.0,0.0,56,0.00,,---,0.00,VWS V14.01,2013-07-30 21:30:00,
2013-07-30 17:31:00,79.4,62.3,30.10,WNW,302,0.0,0.0,56,0.00,,---,0.00,VWS V14.01,2013-07-30 21:31:00,
2013-07-30 17:33:00,79.4,62.3,30.10,WNW,302,0.0,0.0,56,0.00,,---,0.00,VWS V14.01,2013-07-30 21:33:00,
2013-07-30 17:35:00,79.6,62.5,30.10,WNW,302,0.0,0.0,56,0.00,,---,0.00,VWS V14.01,2013-07-30 21:35:00,
2013-07-30 17:40:00,79.6,62.0,30.10,WNW,302,0.0,0.0,55,0.00,,---,0.00,VWS V14.01,2013-07-30 21:40:00,
2013-07-30 17:42:00,79.4,62.3,30.10,WNW,302,0.0,0.0,56,0.00,,---,0.00,VWS V14.01,2013-07-30 21:42:00,
2013-07-30 17:44:00,79.4,61.8,30.10,WNW,302,0.0,0.0,55,0.00,,---,0.00,VWS V14.01,2013-07-30 21:44:00,
2013-07-30 17:45:00,79.4,62.3,30.10,WNW,302,0.0,0.0,56,0.00,,---,0.00,VWS V14.01,2013-07-30 21:45:00,
2013-07-30 17:46:00,79.4,62.3,30.10,WNW,302,0.0,0.0,56,0.00,,---,0.00,VWS V14.01,2013-07-30 21:46:00,
2013-07-30 17:48:00,79.4,62.9,30.10,WNW,302,0.0,0.0,57,0.00,,---,0.00,VWS V14.01,2013-07-30 21:48:00,
2013-07-30 17:50:00,79.2,63.2,30.10,WNW,302,0.0,0.0,58,0.00,,---,0.00,VWS V14.01,2013-07-30 21:50:00,
2013-07-30 17:52:00,79.2,63.2,30.10,WNW,302,0.0,0.0,58,0.00,,---,0.00,VWS V14.01,2013-07-30 21:52:00,
2013-07-30 17:54:00,79.2,63.2,30.10,WNW,302,0.0,0.0,58,0.00,,---,0.00,VWS V14.01,2013-07-30 21:54:00,
2013-07-30 17:56:00,79.2,63.2,30.10,WNW,302,0.0,0.0,58,0.00,,---,0.00,VWS V14.01,2013-07-30 21:56:00,
2013-07-30 17:58:00,79.2,63.7,30.10,WNW,302,0.0,0.0,59,0.00,,---,0.00,VWS V14.01,2013-07-30 21:58:00,
2013-07-30 18:00:00,79.2,63.2,30.10,WNW,302,0.0,0.0,58,0.00,,---,0.00,VWS V14.01,2013-07-30 22:00:00,
2013-07-30 18:02:00,79.2,63.2,30.10,WNW,302,0.0,0.0,58,0.00,,---,0.00,VWS V14.01,2013-07-30 22:02:00,
2013-07-30 18:04:00,79.2,63.7,30.10,WNW,302,0.0,0.0,59,0.00,,---,0.00,VWS V14.01,2013-07-30 22:04:00,
2013-07-30 18:06:00,79.2,63.7,30.10,WNW,302,0.0,0.0,59,0.00,,---,0.00,VWS V14.01,2013-07-30 22:06:00,
2013-07-30 18:08:00,79.2,63.2,30.10,WNW,302,0.0,0.0,58,0.00,,---,0.00,VWS V14.01,2013-07-30 22:08:00,
2013-07-30 18:10:00,79.2,63.7,30.10,WNW,302,0.0,0.0,59,0.00,,---,0.00,VWS V14.01,2013-07-30 22:10:00,
2013-07-30 18:12:00,79.2,64.1,30.10,WNW,302,0.0,0.0,60,0.00,,---,0.00,VWS V14.01,2013-07-30 22:12:00,
2013-07-30 18:14:00,79.0,64.4,30.09,WNW,302,0.0,0.0,61,0.00,,---,0.00,VWS V14.01,2013-07-30 22:14:00,
2013-07-30 18:15:00,79.2,64.6,30.09,WNW,302,0.0,0.0,61,0.00,,---,0.00,VWS V14.01,2013-07-30 22:15:00,
2013-07-30 18:16:00,79.2,64.6,30.09,WNW,302,0.0,0.0,61,0.00,,---,0.00,VWS V14.01,2013-07-30 22:16:00,
2013-07-30 18:18:00,79.2,64.6,30.09,WNW,302,0.0,0.0,61,0.00,,---,0.00,VWS V14.01,2013-07-30 22:18:00,
2013-07-30 18:20:00,79.2,64.6,30.09,WNW,302,0.0,0.0,61,0.00,,---,0.00,VWS V14.01,2013-07-30 22:20:00,
2013-07-30 18:22:00,79.2,64.1,30.09,WNW,302,0.0,0.0,60,0.00,,---,0.00,VWS V14.01,2013-07-30 22:22:00,
2013-07-30 18:24:00,79.2,63.2,30.09,WNW,302,0.0,0.0,58,0.00,,---,0.00,VWS V14.01,2013-07-30 22:24:00,
2013-07-30 18:26:00,79.2,62.7,30.09,WNW,302,0.0,0.0,57,0.00,,---,0.00,VWS V14.01,2013-07-30 22:26:00,
2013-07-30 18:28:00,79.2,63.2,30.09,WNW,302,0.0,0.0,58,0.00,,---,0.00,VWS V14.01,2013-07-30 22:28:00,
2013-07-30 18:30:00,79.4,63.3,30.09,WNW,302,0.0,0.0,58,0.00,,---,0.00,VWS V14.01,2013-07-30 22:30:00,
2013-07-30 18:32:00,79.4,63.3,30.09,WNW,302,0.0,0.0,58,0.00,,---,0.00,VWS V14.01,2013-07-30 22:32:00,
2013-07-30 18:34:00,79.4,63.3,30.09,WNW,302,0.0,0.0,58,0.00,,---,0.00,VWS V14.01,2013-07-30 22:34:00,
2013-07-30 18:36:00,79.4,63.3,30.09,WNW,302,0.0,0.0,58,0.00,,---,0.00,VWS V14.01,2013-07-30 22:36:00,
2013-07-30 18:38:00,79.2,63.7,30.09,WNW,302,0.0,0.0,59,0.00,,---,0.00,VWS V14.01,2013-07-30 22:38:00,
2013-07-30 18:40:00,79.2,64.1,30.09,WNW,302,0.0,0.0,60,0.00,,---,0.00,VWS V14.01,2013-07-30 22:40:00,
2013-07-30 18:42:00,79.0,64.4,30.09,WNW,302,0.0,0.0,61,0.00,,---,0.00,VWS V14.01,2013-07-30 22:42:00,
2013-07-30 18:44:00,79.0,64.4,30.09,WNW,302,0.0,0.0,61,0.00,,---,0.00,VWS V14.01,2013-07-30 22:44:00,
2013-07-30 18:45:00,79.0,64.4,30.09,WNW,302,0.0,0.0,61,0.00,,---,0.00,VWS V14.01,2013-07-30 22:45:00,
2013-07-30 18:46:00,78.8,63.8,30.09,WNW,302,0.0,0.0,60,0.00,,---,0.00,VWS V14.01,2013-07-30 22:46:00,
2013-07-30 18:48:00,78.8,64.2,30.09,WNW,302,0.0,0.0,61,0.00,,---,0.00,VWS V14.01,2013-07-30 22:48:00,
2013-07-30 18:50:00,78.8,64.2,30.09,WNW,302,0.0,0.0,61,0.00,,---,0.00,VWS V14.01,2013-07-30 22:50:00,
2013-07-30 18:52:00,78.8,64.2,30.09,WNW,302,0.0,0.0,61,0.00,,---,0.00,VWS V14.01,2013-07-30 22:52:00,
2013-07-30 18:54:00,78.6,64.5,30.09,WNW,302,0.0,0.0,62,0.00,,---,0.00,VWS V14.01,2013-07-30 22:54:00,
2013-07-30 18:56:00,78.6,64.5,30.09,WNW,302,0.0,0.0,62,0.00,,---,0.00,VWS V14.01,2013-07-30 22:56:00,
2013-07-30 18:58:00,78.6,64.5,30.09,WNW,302,0.0,0.0,62,0.00,,---,0.00,VWS V14.01,2013-07-30 22:58:00,
2013-07-30 19:00:00,78.6,64.5,30.09,WNW,302,0.0,0.0,62,0.00,,---,0.00,VWS V14.01,2013-07-30 23:00:00,
2013-07-30 19:02:00,78.5,64.4,30.09,WNW,302,0.0,0.0,62,0.00,,---,0.00,VWS V14.01,2013-07-30 23:02:00,
2013-07-30 19:04:00,78.3,63.8,30.09,WNW,302,0.0,0.0,61,0.00,,---,0.00,VWS V14.01,2013-07-30 23:04:00,
2013-07-30 19:06:00,78.3,64.2,30.09,WNW,302,0.0,0.0,62,0.00,,---,0.00,VWS V14.01,2013-07-30 23:06:00,
2013-07-30 19:08:00,78.1,64.0,30.09,WNW,302,0.0,0.0,62,0.00,,---,0.00,VWS V14.01,2013-07-30 23:08:00,
2013-07-30 19:10:00,78.1,63.6,30.09,WNW,302,0.0,0.0,61,0.00,,---,0.00,VWS V14.01,2013-07-30 23:10:00,
2013-07-30 19:12:00,77.9,63.4,30.09,WNW,302,0.0,0.0,61,0.00,,---,0.00,VWS V14.01,2013-07-30 23:12:00,
2013-07-30 19:14:00,77.9,63.4,30.09,WNW,302,0.0,0.0,61,0.00,,---,0.00,VWS V14.01,2013-07-30 23:14:00,
2013-07-30 19:15:00,77.9,63.8,30.09,WNW,302,0.0,0.0,62,0.00,,---,0.00,VWS V14.01,2013-07-30 23:15:00,
2013-07-30 19:17:00,77.7,63.7,30.09,WNW,302,0.0,0.0,62,0.00,,---,0.00,VWS V14.01,2013-07-30 23:17:00,
2013-07-30 19:18:00,77.7,63.7,30.09,WNW,302,0.0,0.0,62,0.00,,---,0.00,VWS V14.01,2013-07-30 23:18:00,
2013-07-30 19:21:00,77.7,64.1,30.09,WNW,302,0.0,0.0,63,0.00,,---,0.00,VWS V14.01,2013-07-30 23:21:00,
2013-07-30 19:23:00,77.6,64.0,30.09,WNW,302,0.0,0.0,63,0.00,,---,0.00,VWS V14.01,2013-07-30 23:23:00,
2013-07-30 19:25:00,77.6,64.0,30.09,WNW,302,0.0,0.0,63,0.00,,---,0.00,VWS V14.01,2013-07-30 23:25:00,
2013-07-30 19:27:00,77.6,64.0,30.09,WNW,302,0.0,0.0,63,0.00,,---,0.00,VWS V14.01,2013-07-30 23:27:00,
2013-07-30 19:29:00,77.4,64.3,30.09,WNW,302,0.0,0.0,64,0.00,,---,0.00,VWS V14.01,2013-07-30 23:29:00,
2013-07-30 19:30:00,77.4,64.3,30.09,WNW,302,0.0,0.0,64,0.00,,---,0.00,VWS V14.01,2013-07-30 23:30:00,
2013-07-30 19:33:00,77.2,64.5,30.09,WNW,302,0.0,0.0,65,0.00,,---,0.00,VWS V14.01,2013-07-30 23:33:00,
2013-07-30 19:35:00,77.2,64.5,30.09,WNW,302,0.0,0.0,65,0.00,,---,0.00,VWS V14.01,2013-07-30 23:35:00,
2013-07-30 19:37:00,77.2,65.0,30.09,WNW,302,0.0,0.0,66,0.00,,---,0.00,VWS V14.01,2013-07-30 23:37:00,
2013-07-30 19:39:00,77.0,65.2,30.09,WNW,302,0.0,0.0,67,0.00,,---,0.00,VWS V14.01,2013-07-30 23:39:00,
2013-07-30 19:41:00,77.0,65.2,30.09,WNW,302,0.0,0.0,67,0.00,,---,0.00,VWS V14.01,2013-07-30 23:41:00,
2013-07-30 19:43:00,76.8,65.4,30.09,WNW,302,0.0,0.0,68,0.00,,---,0.00,VWS V14.01,2013-07-30 23:43:00,
2013-07-30 19:45:00,76.7,65.3,30.09,WNW,302,0.0,0.0,68,0.00,,---,0.00,VWS V14.01,2013-07-30 23:45:00,
2013-07-30 19:47:00,76.5,65.6,30.09,WNW,302,0.0,0.0,69,0.00,,---,0.00,VWS V14.01,2013-07-30 23:47:00,
2013-07-30 19:49:00,76.5,66.0,30.09,WNW,302,0.0,0.0,70,0.00,,---,0.00,VWS V14.01,2013-07-30 23:49:00,
2013-07-30 19:51:00,76.3,66.2,30.09,WNW,302,0.0,0.0,71,0.00,,---,0.00,VWS V14.01,2013-07-30 23:51:00,
2013-07-30 19:53:00,76.1,66.0,30.09,WNW,302,0.0,0.0,71,0.00,,---,0.00,VWS V14.01,2013-07-30 23:53:00,
2013-07-30 19:55:00,76.0,65.9,30.09,WNW,302,0.0,0.0,71,0.00,,---,0.00,VWS V14.01,2013-07-30 23:55:00,
2013-07-30 19:57:00,75.8,65.3,30.09,WNW,302,0.0,0.0,70,0.00,,---,0.00,VWS V14.01,2013-07-30 23:57:00,
2013-07-30 19:59:00,75.6,65.1,30.09,WNW,302,0.0,0.0,70,0.00,,---,0.00,VWS V14.01,2013-07-30 23:59:00,
2013-07-30 20:00:00,75.4,65.3,30.09,WNW,302,0.0,0.0,71,0.00,,---,0.00,VWS V14.01,2013-07-31 00:00:00,
2013-07-30 20:01:00,75.4,65.8,30.09,WNW,302,0.0,0.0,72,0.00,,---,0.00,VWS V14.01,2013-07-31 00:01:00,
2013-07-30 20:03:00,75.3,66.1,30.09,WNW,302,0.0,0.0,73,0.00,,---,0.00,VWS V14.01,2013-07-31 00:03:00,
2013-07-30 20:05:00,75.1,66.2,30.09,WNW,302,0.0,0.0,74,0.00,,---,0.00,VWS V14.01,2013-07-31 00:05:00,
2013-07-30 20:07:00,74.9,66.1,30.09,WNW,302,0.0,0.0,74,0.00,,---,0.00,VWS V14.01,2013-07-31 00:07:00,
2013-07-30 20:09:00,74.7,65.9,30.09,WNW,302,0.0,0.0,74,0.00,,---,0.00,VWS V14.01,2013-07-31 00:09:00,
2013-07-30 20:11:00,74.6,65.8,30.09,WNW,302,0.0,0.0,74,0.00,,---,0.00,VWS V14.01,2013-07-31 00:11:00,
2013-07-30 20:13:00,74.4,66.0,30.09,WNW,302,0.0,0.0,75,0.00,,---,0.00,VWS V14.01,2013-07-31 00:13:00,
2013-07-30 20:15:00,74.2,65.8,30.09,WNW,302,0.0,0.0,75,0.00,,---,0.00,VWS V14.01,2013-07-31 00:15:00,
2013-07-30 20:17:00,74.2,65.8,30.09,WNW,302,0.0,0.0,75,0.00,,---,0.00,VWS V14.01,2013-07-31 00:17:00,
2013-07-30 20:19:00,74.0,65.6,30.09,WNW,302,0.0,0.0,75,0.00,,---,0.00,VWS V14.01,2013-07-31 00:19:00,
2013-07-30 20:21:00,74.0,66.0,30.09,WNW,302,0.0,0.0,76,0.00,,---,0.00,VWS V14.01,2013-07-31 00:21:00,
2013-07-30 20:23:00,74.0,66.0,30.09,WNW,302,0.0,0.0,76,0.00,,---,0.00,VWS V14.01,2013-07-31 00:23:00,
2013-07-30 20:25:00,73.9,66.2,30.09,WNW,302,0.0,0.0,77,0.00,,---,0.00,VWS V14.01,2013-07-31 00:25:00,
2013-07-30 20:27:00,73.9,66.6,30.09,WNW,302,0.0,0.0,78,0.00,,---,0.00,VWS V14.01,2013-07-31 00:27:00,
2013-07-30 20:29:00,73.7,66.4,30.09,WNW,302,0.0,0.0,78,0.00,,---,0.00,VWS V14.01,2013-07-31 00:29:00,
2013-07-30 20:30:00,73.7,66.4,30.09,WNW,302,0.0,0.0,78,0.00,,---,0.00,VWS V14.01,2013-07-31 00:30:00,
2013-07-30 20:31:00,73.5,66.6,30.09,WNW,302,0.0,0.0,79,0.00,,---,0.00,VWS V14.01,2013-07-31 00:31:00,
2013-07-30 20:33:00,73.5,66.6,30.09,WNW,302,0.0,0.0,79,0.00,,---,0.00,VWS V14.01,2013-07-31 00:33:00,
2013-07-30 20:35:00,73.3,66.4,30.09,WNW,302,0.0,0.0,79,0.00,,---,0.00,VWS V14.01,2013-07-31 00:35:00,
2013-07-30 20:37:00,73.2,66.3,30.09,WNW,302,0.0,0.0,79,0.00,,---,0.00,VWS V14.01,2013-07-31 00:37:00,
2013-07-30 20:39:00,73.2,66.3,30.09,WNW,302,0.0,0.0,79,0.00,,---,0.00,VWS V14.01,2013-07-31 00:39:00,
2013-07-30 20:41:00,73.2,66.3,30.09,WNW,302,0.0,0.0,79,0.00,,---,0.00,VWS V14.01,2013-07-31 00:41:00,
2013-07-30 20:43:00,73.2,66.3,30.09,WNW,302,0.0,0.0,79,0.00,,---,0.00,VWS V14.01,2013-07-31 00:43:00,
2013-07-30 20:45:00,73.2,66.7,30.08,WNW,302,0.0,0.0,80,0.00,,---,0.00,VWS V14.01,2013-07-31 00:45:00,
2013-07-30 20:47:00,73.0,66.5,30.08,WNW,302,0.0,0.0,80,0.00,,---,0.00,VWS V14.01,2013-07-31 00:47:00,
2013-07-30 20:49:00,73.0,66.5,30.08,WNW,302,0.0,0.0,80,0.00,,---,0.00,VWS V14.01,2013-07-31 00:49:00,
2013-07-30 20:51:00,73.0,66.8,30.08,WNW,302,0.0,0.0,81,0.00,,---,0.00,VWS V14.01,2013-07-31 00:51:00,
2013-07-30 20:53:00,73.0,66.8,30.08,WNW,302,0.0,0.0,81,0.00,,---,0.00,VWS V14.01,2013-07-31 00:53:00,
2013-07-30 20:55:00,72.8,67.0,30.08,WNW,302,0.0,0.0,82,0.00,,---,0.00,VWS V14.01,2013-07-31 00:55:00,
2013-07-30 20:57:00,72.8,67.0,30.08,WNW,302,0.0,0.0,82,0.00,,---,0.00,VWS V14.01,2013-07-31 00:57:00,
2013-07-30 20:59:00,72.7,66.9,30.09,WNW,302,0.0,0.0,82,0.00,,---,0.00,VWS V14.01,2013-07-31 00:59:00,
2013-07-30 21:00:00,72.7,66.9,30.09,WNW,302,0.0,0.0,82,0.00,,---,0.00,VWS V14.01,2013-07-31 01:00:00,
2013-07-30 21:01:00,72.7,67.2,30.09,WNW,302,0.0,0.0,83,0.00,,---,0.00,VWS V14.01,2013-07-31 01:01:00,
2013-07-30 21:03:00,72.7,67.2,30.09,WNW,302,0.0,0.0,83,0.00,,---,0.00,VWS V14.01,2013-07-31 01:03:00,
2013-07-30 21:05:00,72.5,67.1,30.09,WNW,302,0.0,0.0,83,0.00,,---,0.00,VWS V14.01,2013-07-31 01:05:00,
2013-07-30 21:07:00,72.5,67.1,30.09,WNW,302,0.0,0.0,83,0.00,,---,0.00,VWS V14.01,2013-07-31 01:07:00,
2013-07-30 21:09:00,72.5,67.1,30.09,WNW,302,0.0,0.0,83,0.00,,---,0.00,VWS V14.01,2013-07-31 01:09:00,
2013-07-30 21:11:00,72.5,67.1,30.09,WNW,302,0.0,0.0,83,0.00,,---,0.00,VWS V14.01,2013-07-31 01:11:00,
2013-07-30 21:13:00,72.5,67.1,30.09,WNW,302,0.0,0.0,83,0.00,,---,0.00,VWS V14.01,2013-07-31 01:13:00,
2013-07-30 21:15:00,72.5,67.4,30.09,WNW,302,0.0,0.0,84,0.00,,---,0.00,VWS V14.01,2013-07-31 01:15:00,
2013-07-30 21:17:00,72.3,67.2,30.09,WNW,302,0.0,0.0,84,0.00,,---,0.00,VWS V14.01,2013-07-31 01:17:00,
2013-07-30 21:19:00,72.3,67.5,30.09,WNW,302,0.0,0.0,85,0.00,,---,0.00,VWS V14.01,2013-07-31 01:19:00,
2013-07-30 21:21:00,72.3,67.2,30.09,WNW,302,0.0,0.0,84,0.00,,---,0.00,VWS V14.01,2013-07-31 01:21:00,
2013-07-30 21:23:00,72.1,67.3,30.09,WNW,302,0.0,0.0,85,0.00,,---,0.00,VWS V14.01,2013-07-31 01:23:00,
2013-07-30 21:25:00,72.1,67.3,30.09,WNW,302,0.0,0.0,85,0.00,,---,0.00,VWS V14.01,2013-07-31 01:25:00,
2013-07-30 21:27:00,72.1,67.3,30.09,WNW,302,0.0,0.0,85,0.00,,---,0.00,VWS V14.01,2013-07-31 01:27:00,
2013-07-30 21:29:00,72.1,67.3,30.09,WNW,302,0.0,0.0,85,0.00,,---,0.00,VWS V14.01,2013-07-31 01:29:00,
2013-07-30 21:30:00,72.1,67.3,30.09,WNW,302,0.0,0.0,85,0.00,,---,0.00,VWS V14.01,2013-07-31 01:30:00,
2013-07-30 21:31:00,72.1,67.3,30.09,WNW,302,0.0,0.0,85,0.00,,---,0.00,VWS V14.01,2013-07-31 01:31:00,
2013-07-30 21:33:00,72.1,67.7,30.09,WNW,302,0.0,0.0,86,0.00,,---,0.00,VWS V14.01,2013-07-31 01:33:00,
2013-07-30 21:35:00,72.1,67.7,30.09,WNW,302,0.0,0.0,86,0.00,,---,0.00,VWS V14.01,2013-07-31 01:35:00,
2013-07-30 21:37:00,72.0,67.6,30.09,WNW,302,0.0,0.0,86,0.00,,---,0.00,VWS V14.01,2013-07-31 01:37:00,
2013-07-30 21:39:00,72.0,67.6,30.09,WNW,302,0.0,0.0,86,0.00,,---,0.00,VWS V14.01,2013-07-31 01:39:00,
2013-07-30 21:41:00,71.8,67.7,30.09,WNW,302,0.0,0.0,87,0.00,,---,0.00,VWS V14.01,2013-07-31 01:41:00,
2013-07-30 21:43:00,71.8,67.7,30.09,WNW,302,0.0,0.0,87,0.00,,---,0.00,VWS V14.01,2013-07-31 01:43:00,
2013-07-30 21:45:00,71.8,67.7,30.09,WNW,302,0.0,0.0,87,0.00,,---,0.00,VWS V14.01,2013-07-31 01:45:00,
2013-07-30 21:47:00,71.6,67.9,30.09,WNW,302,0.0,0.0,88,0.00,,---,0.00,VWS V14.01,2013-07-31 01:47:00,
2013-07-30 21:49:00,71.6,67.9,30.09,WNW,302,0.0,0.0,88,0.00,,---,0.00,VWS V14.01,2013-07-31 01:49:00,
2013-07-30 21:51:00,71.5,67.8,30.09,WNW,302,0.0,0.0,88,0.00,,---,0.00,VWS V14.01,2013-07-31 01:51:00,
2013-07-30 21:53:00,71.3,67.9,30.09,WNW,302,0.0,0.0,89,0.00,,---,0.00,VWS V14.01,2013-07-31 01:53:00,
2013-07-30 21:55:00,71.3,67.9,30.09,WNW,302,0.0,0.0,89,0.00,,---,0.00,VWS V14.01,2013-07-31 01:55:00,
2013-07-30 21:58:00,71.1,68.0,30.09,WNW,302,0.0,0.0,90,0.00,,---,0.00,VWS V14.01,2013-07-31 01:58:00,
2013-07-30 21:59:00,71.1,68.0,30.10,WNW,302,0.0,0.0,90,0.00,,---,0.00,VWS V14.01,2013-07-31 01:59:00,
2013-07-30 22:00:00,71.1,68.0,30.10,WNW,302,0.0,0.0,90,0.00,,---,0.00,VWS V14.01,2013-07-31 02:00:00,
2013-07-30 22:02:00,70.9,67.8,30.10,WNW,302,0.0,0.0,90,0.00,,---,0.00,VWS V14.01,2013-07-31 02:02:00,
2013-07-30 22:04:00,70.9,67.8,30.10,WNW,302,0.0,0.0,90,0.00,,---,0.00,VWS V14.01,2013-07-31 02:04:00,
2013-07-30 22:05:00,70.9,67.5,30.10,WNW,302,0.0,0.0,89,0.00,,---,0.00,VWS V14.01,2013-07-31 02:05:00,
2013-07-30 22:07:00,70.9,67.5,30.10,WNW,302,0.0,0.0,89,0.00,,---,0.00,VWS V14.01,2013-07-31 02:07:00,
2013-07-30 22:10:00,70.8,67.7,30.10,WNW,302,0.0,0.0,90,0.00,,---,0.00,VWS V14.01,2013-07-31 02:10:00,
2013-07-30 22:12:00,70.8,67.7,30.10,WNW,302,0.0,0.0,90,0.00,,---,0.00,VWS V14.01,2013-07-31 02:12:00,
2013-07-30 22:14:00,70.8,67.7,30.10,WNW,302,0.0,0.0,90,0.00,,---,0.00,VWS V14.01,2013-07-31 02:14:00,
2013-07-30 22:15:00,70.6,67.5,30.10,WNW,302,0.0,0.0,90,0.00,,---,0.00,VWS V14.01,2013-07-31 02:15:00,
2013-07-30 22:16:00,70.6,67.5,30.10,WNW,302,0.0,0.0,90,0.00,,---,0.00,VWS V14.01,2013-07-31 02:16:00,
2013-07-30 22:18:00,70.6,67.8,30.10,WNW,302,0.0,0.0,91,0.00,,---,0.00,VWS V14.01,2013-07-31 02:18:00,
2013-07-30 22:20:00,70.4,67.7,30.10,WNW,302,0.0,0.0,91,0.00,,---,0.00,VWS V14.01,2013-07-31 02:20:00,
2013-07-30 22:22:00,70.4,67.7,30.10,WNW,302,0.0,0.0,91,0.00,,---,0.00,VWS V14.01,2013-07-31 02:22:00,
2013-07-30 22:24:00,70.4,67.7,30.10,WNW,302,0.0,0.0,91,0.00,,---,0.00,VWS V14.01,2013-07-31 02:24:00,
2013-07-30 22:26:00,70.4,67.7,30.10,WNW,302,0.0,0.0,91,0.00,,---,0.00,VWS V14.01,2013-07-31 02:26:00,
2013-07-30 22:28:00,70.3,67.6,30.10,WNW,302,0.0,0.0,91,0.00,,---,0.00,VWS V14.01,2013-07-31 02:28:00,
2013-07-30 22:30:00,70.3,67.2,30.10,WNW,302,0.0,0.0,90,0.00,,---,0.00,VWS V14.01,2013-07-31 02:30:00,
2013-07-30 22:32:00,70.3,67.2,30.10,WNW,302,0.0,0.0,90,0.00,,---,0.00,VWS V14.01,2013-07-31 02:32:00,
2013-07-30 22:34:00,70.3,67.2,30.10,WNW,302,0.0,0.0,90,0.00,,---,0.00,VWS V14.01,2013-07-31 02:34:00,
2013-07-30 22:36:00,70.3,67.2,30.10,WNW,302,0.0,0.0,90,0.00,,---,0.00,VWS V14.01,2013-07-31 02:36:00,
2013-07-30 22:38:00,70.3,67.2,30.10,WNW,302,0.0,0.0,90,0.00,,---,0.00,VWS V14.01,2013-07-31 02:38:00,
2013-07-30 22:40:00,70.1,66.7,30.10,WNW,302,0.0,0.0,89,0.00,,---,0.00,VWS V14.01,2013-07-31 02:40:00,
2013-07-30 22:42:00,70.1,66.7,30.10,WNW,302,0.0,0.0,89,0.00,,---,0.00,VWS V14.01,2013-07-31 02:42:00,
2013-07-30 22:44:00,70.1,67.0,30.10,WNW,302,0.0,0.0,90,0.00,,---,0.00,VWS V14.01,2013-07-31 02:44:00,
2013-07-30 22:45:00,70.1,67.4,30.10,WNW,302,0.0,0.0,91,0.00,,---,0.00,VWS V14.01,2013-07-31 02:45:00,
2013-07-30 22:46:00,70.1,67.4,30.10,WNW,302,0.0,0.0,91,0.00,,---,0.00,VWS V14.01,2013-07-31 02:46:00,
2013-07-30 22:48:00,70.1,67.4,30.10,WNW,302,0.0,0.0,91,0.00,,---,0.00,VWS V14.01,2013-07-31 02:48:00,
2013-07-30 22:50:00,70.1,67.7,30.10,WNW,302,0.0,0.0,92,0.00,,---,0.00,VWS V14.01,2013-07-31 02:50:00,
2013-07-30 22:52:00,69.9,67.5,30.10,WNW,302,0.0,0.0,92,0.00,,---,0.00,VWS V14.01,2013-07-31 02:52:00,
2013-07-30 22:54:00,69.9,67.5,30.10,WNW,302,0.0,0.0,92,0.00,,---,0.00,VWS V14.01,2013-07-31 02:54:00,
2013-07-30 22:56:00,69.9,67.5,30.10,WNW,302,0.0,0.0,92,0.00,,---,0.00,VWS V14.01,2013-07-31 02:56:00,
2013-07-30 22:58:00,69.8,67.4,30.10,WNW,302,0.0,0.0,92,0.00,,---,0.00,VWS V14.01,2013-07-31 02:58:00,
2013-07-30 23:00:00,69.8,67.4,30.10,WNW,302,0.0,0.0,92,0.00,,---,0.00,VWS V14.01,2013-07-31 03:00:00,
2013-07-30 23:02:00,69.6,67.2,30.10,WNW,302,0.0,0.0,92,0.00,,---,0.00,VWS V14.01,2013-07-31 03:02:00,
2013-07-30 23:04:00,69.6,67.2,30.10,WNW,302,0.0,0.0,92,0.00,,---,0.00,VWS V14.01,2013-07-31 03:04:00,
2013-07-30 23:06:00,69.6,67.5,30.10,WNW,302,0.0,0.0,93,0.00,,---,0.00,VWS V14.01,2013-07-31 03:06:00,
2013-07-30 23:08:00,69.6,67.2,30.10,WNW,302,0.0,0.0,92,0.00,,---,0.00,VWS V14.01,2013-07-31 03:08:00,
2013-07-30 23:10:00,69.6,67.2,30.10,WNW,302,0.0,0.0,92,0.00,,---,0.00,VWS V14.01,2013-07-31 03:10:00,
2013-07-30 23:12:00,69.6,67.2,30.10,WNW,302,0.0,0.0,92,0.00,,---,0.00,VWS V14.01,2013-07-31 03:12:00,
2013-07-30 23:14:00,69.6,67.2,30.09,WNW,302,0.0,0.0,92,0.00,,---,0.00,VWS V14.01,2013-07-31 03:14:00,
2013-07-30 23:15:00,69.6,67.2,30.09,WNW,302,0.0,0.0,92,0.00,,---,0.00,VWS V14.01,2013-07-31 03:15:00,
2013-07-30 23:16:00,69.6,67.2,30.09,WNW,302,0.0,0.0,92,0.00,,---,0.00,VWS V14.01,2013-07-31 03:16:00,
2013-07-30 23:18:00,69.6,67.2,30.09,WNW,302,0.0,0.0,92,0.00,,---,0.00,VWS V14.01,2013-07-31 03:18:00,
2013-07-30 23:20:00,69.6,67.5,30.09,WNW,302,0.0,0.0,93,0.00,,---,0.00,VWS V14.01,2013-07-31 03:20:00,
2013-07-30 23:22:00,69.6,67.5,30.09,WNW,302,0.0,0.0,93,0.00,,---,0.00,VWS V14.01,2013-07-31 03:22:00,
2013-07-30 23:24:00,69.6,67.5,30.09,WNW,302,0.0,0.0,93,0.00,,---,0.00,VWS V14.01,2013-07-31 03:24:00,
2013-07-30 23:26:00,69.6,67.5,30.09,WNW,302,0.0,0.0,93,0.00,,---,0.00,VWS V14.01,2013-07-31 03:26:00,
2013-07-30 23:28:00,69.4,67.3,30.09,WNW,302,0.0,0.0,93,0.00,,---,0.00,VWS V14.01,2013-07-31 03:28:00,
2013-07-30 23:30:00,69.4,67.3,30.09,WNW,302,0.0,0.0,93,0.00,,---,0.00,VWS V14.01,2013-07-31 03:30:00,
2013-07-30 23:32:00,69.4,67.3,30.09,WNW,302,0.0,0.0,93,0.00,,---,0.00,VWS V14.01,2013-07-31 03:32:00,
2013-07-30 23:34:00,69.4,67.3,30.09,WNW,302,0.0,0.0,93,0.00,,---,0.00,VWS V14.01,2013-07-31 03:34:00,
2013-07-30 23:36:00,69.3,67.2,30.09,WNW,302,0.0,0.0,93,0.00,,---,0.00,VWS V14.01,2013-07-31 03:36:00,
2013-07-30 23:38:00,69.3,67.5,30.09,WNW,302,0.0,0.0,94,0.00,,---,0.00,VWS V14.01,2013-07-31 03:38:00,
2013-07-30 23:40:00,69.3,67.5,30.09,WNW,302,0.0,0.0,94,0.00,,---,0.00,VWS V14.01,2013-07-31 03:40:00,
2013-07-30 23:42:00,69.3,67.5,30.09,WNW,302,0.0,0.0,94,0.00,,---,0.00,VWS V14.01,2013-07-31 03:42:00,
2013-07-30 23:44:00,69.1,67.3,30.09,WNW,302,0.0,0.0,94,0.00,,---,0.00,VWS V14.01,2013-07-31 03:44:00,
2013-07-30 23:45:00,69.1,67.3,30.09,WNW,302,0.0,0.0,94,0.00,,---,0.00,VWS V14.01,2013-07-31 03:45:00,
2013-07-30 23:46:00,69.1,67.3,30.09,WNW,302,0.0,0.0,94,0.00,,---,0.00,VWS V14.01,2013-07-31 03:46:00,
2013-07-30 23:48:00,69.1,67.3,30.09,WNW,302,0.0,0.0,94,0.00,,---,0.00,VWS V14.01,2013-07-31 03:48:00,
2013-07-30 23:50:00,69.1,67.6,30.09,WNW,302,0.0,0.0,95,0.00,,---,0.00,VWS V14.01,2013-07-31 03:50:00,
2013-07-30 23:52:00,69.1,67.6,30.09,WNW,302,0.0,0.0,95,0.00,,---,0.00,VWS V14.01,2013-07-31 03:52:00,
2013-07-30 23:54:00,69.1,67.6,30.09,WNW,302,0.0,0.0,95,0.00,,---,0.00,VWS V14.01,2013-07-31 03:54:00,
2013-07-30 23:56:00,69.1,67.6,30.09,WNW,302,0.0,0.0,95,0.00,,---,0.00,VWS V14.01,2013-07-31 03:56:00,
2013-07-30 23:58:00,69.1,67.6,30.09,WNW,302,0.0,0.0,95,0.00,,---,0.00,VWS V14.01,2013-07-31 03:58:00,